GFSWCAN_con_lsi_096.txt.gz
Lid_Strength_Index
1 1 0 0 -0 -1 -1 -1 -0 0 1 1 1 0 -0 -0 0 3 4 4 6 11 10 12 12 13 11 10 12 12 11 12 13 12 17 20 22 17 18 16 14 16 16 17 20 23 20 13 14 14 12 12 12 13
1 1 0 -0 -0 -1 -1 -1 -0 0 0 1 1 1 0 1 1 2 6 4 5 9 10 10 11 11 11 12 11 12 12 13 11 14 17 19 18 20 20 17 15 16 14 16 13 14 12 13 13 13 12 12 12 11
1 1 1 -0 -0 -1 -1 -0 -0 0 0 1 1 0 0 1 1 2 5 5 6 10 11 11 13 11 10 11 10 12 12 11 12 12 15 19 18 18 20 21 16 15 15 15 14 15 14 13 13 12 12 12 12 12
1 1 1 0 -0 -0 -0 0 0 0 1 1 1 1 1 1 1 2 5 5 8 10 13 13 10 12 10 8 8 9 10 10 11 12 14 18 16 14 18 15 16 15 14 17 17 16 15 14 13 12 12 12 12 12
1 1 1 0 -0 0 1 1 1 1 1 1 1 1 1 1 2 3 4 5 6 10 14 13 12 11 10 9 10 9 10 11 13 13 14 16 15 15 15 16 18 14 14 14 15 13 12 13 13 13 13 12 12 12
1 1 0 0 0 1 1 2 1 1 1 2 1 1 1 2 4 7 9 5 5 8 13 16 12 13 12 11 11 12 11 12 12 13 15 16 15 15 16 21 15 13 12 12 12 12 12 12 12 12 12 12 13 13
1 1 0 1 1 2 2 2 2 2 2 2 2 1 1 2 6 10 10 7 5 9 14 16 16 12 12 12 12 12 12 13 12 13 14 16 15 15 17 19 15 13 13 13 13 12 12 13 13 14 13 13 15 17
2 1 1 2 2 2 2 2 2 2 2 2 1 1 2 3 5 7 5 4 6 12 14 17 17 15 12 14 14 13 14 13 14 15 14 15 14 15 16 14 14 13 13 13 14 14 14 14 15 15 16 16 16 17
2 2 2 2 2 2 2 2 2 2 2 1 1 2 5 9 13 8 3 4 7 11 19 19 20 20 14 15 14 14 14 16 14 16 15 15 17 18 19 16 18 19 17 16 17 16 16 17 16 17 17 17 17 18
3 3 3 2 2 2 2 2 2 2 2 1 5 8 13 7 3 6 10 12 12 16 17 20 19 19 15 17 17 16 16 18 18 17 16 18 19 20 21 22 22 22 21 22 18 18 19 19 19 19 20 21 21 21
3 3 3 3 3 3 3 3 2 1 3 9 12 12 6 5 11 17 19 18 20 19 20 20 19 17 14 18 19 15 20 20 20 18 18 20 20 22 24 25 25 25 24 25 24 23 23 24 23 22 23 25 25 25
3 3 3 3 3 3 2 3 2 4 6 9 7 8 12 17 20 19 25 22 22 22 19 19 18 16 14 14 18 19 21 21 22 20 19 22 23 28 29 28 28 29 30 29 29 29 28 28 29 28 29 30 30 29
3 3 3 3 2 2 2 3 2 2 3 6 12 17 16 20 22 25 26 24 23 21 18 16 17 17 15 15 21 20 21 23 19 22 23 24 27 30 31 31 31 30 32 32 32 31 31 31 31 33 33 33 33 31
2 2 2 2 2 2 3 2 2 2 8 10 17 22 23 23 26 29 28 28 22 19 16 15 16 17 19 17 19 21 23 18 25 25 23 29 31 32 31 32 33 33 34 34 34 34 33 33 33 35 36 37 36 34
2 2 2 3 3 3 3 3 4 13 13 16 19 24 26 26 27 26 25 23 20 19 18 17 17 15 18 18 20 23 23 27 27 26 31 31 32 33 32 33 33 34 35 35 35 36 35 35 36 37 37 38 38 37
3 3 4 3 4 4 5 8 12 14 22 22 29 25 24 26 23 24 26 26 21 21 22 21 22 21 22 23 22 25 26 27 26 33 33 32 33 33 34 34 34 35 35 36 36 36 36 36 37 38 39 39 38 39
4 10 3 3 5 7 7 13 15 23 24 25 27 32 32 30 31 30 30 25 23 23 20 26 23 24 23 25 27 29 29 31 35 33 33 35 35 35 35 35 34 35 35 35 35 34 35 34 36 34 34 34 37 40
11 8 4 4 7 10 16 17 20 22 26 26 25 26 29 29 28 28 27 25 25 27 26 24 22 26 31 26 29 33 33 35 33 33 31 34 35 35 36 35 33 34 35 35 38 37 37 35 33 34 36 35 34 34
5 6 6 6 8 15 17 19 20 25 27 26 25 26 28 28 27 26 26 25 28 30 27 27 31 36 36 35 37 36 36 35 35 33 32 33 31 32 32 33 33 35 32 34 37 36 37 40 37 36 35 35 36 35
5 5 6 8 10 18 21 24 23 24 28 26 27 27 28 27 28 29 26 27 29 32 34 35 37 37 35 35 35 36 36 34 38 38 36 31 29 31 33 34 33 33 33 30 31 31 33 34 35 35 36 35 35 33
10 10 10 14 18 21 25 26 26 28 29 26 32 29 28 30 32 31 30 29 30 33 35 35 35 33 31 34 36 38 34 34 35 35 37 35 33 31 30 29 31 31 34 33 32 32 32 34 33 33 37 36 36 35
14 11 18 15 19 23 25 25 26 28 26 31 29 31 32 32 33 31 31 30 32 32 35 34 34 35 35 34 34 33 33 33 32 32 30 30 32 32 32 34 35 34 35 35 35 35 34 33 33 34 36 33 33 34
16 16 21 22 21 23 28 26 26 28 26 29 31 29 31 34 32 30 33 38 36 33 35 36 37 39 37 37 39 38 39 39 39 39 37 36 36 35 35 34 35 34 32 32 37 36 34 31 32 31 32 33 35 33
20 28 29 30 28 33 30 30 29 30 30 30 31 32 32 34 28 30 35 38 34 38 38 38 44 36 38 39 39 39 39 43 42 38 39 42 38 36 39 37 38 38 35 34 35 36 35 34 31 32 33 35 35 35
24 33 31 34 32 32 33 33 34 32 35 37 34 33 33 35 33 35 34 33 35 38 38 42 43 41 40 39 39 39 41 40 38 37 36 40 41 39 34 36 34 35 38 37 37 37 36 36 36 35 35 37 36 34
36 39 37 41 36 35 39 36 39 39 42 36 39 38 38 34 31 34 34 34 36 37 37 37 38 39 39 37 38 37 36 41 42 40 35 39 38 37 37 35 33 32 36 38 39 39 36 35 37 35 33 34 33 36
34 38 40 42 41 41 39 41 42 39 40 39 42 38 35 33 33 31 32 31 32 32 34 36 36 35 34 32 34 34 34 39 35 32 32 33 33 33 32 33 33 32 37 39 39 39 37 36 36 36 36 34 36 35
42 43 39 39 41 45 42 43 41 40 41 42 43 36 33 33 31 30 29 30 34 38 39 35 35 34 34 33 33 35 35 41 41 37 34 33 33 32 33 31 30 26 30 33 34 35 37 37 36 35 35 34 32 32
43 47 46 39 42 40 43 40 41 44 44 46 39 37 35 34 35 36 33 36 44 41 36 34 34 45 38 38 37 38 39 42 37 34 35 31 34 30 37 37 36 36 36 37 32 27 29 32 32 32 31 31 29 29
42 53 41 43 38 36 40 46 47 52 54 50 51 44 42 40 39 42 43 42 38 34 36 39 39 45 37 41 34 32 38 38 36 32 32 29 29 34 40 38 35 33 32 35 33 33 30 31 31 35 33 32 32 31
50 50 43 44 39 44 49 57 59 57 57 56 60 51 43 43 41 38 39 39 41 45 41 33 34 42 41 38 41 40 28 35 37 34 33 31 31 30 30 29 30 31 33 35 34 34 33 33 33 34 34 34 32 32
47 48 42 36 38 48 54 52 52 50 51 50 48 57 48 44 37 30 34 41 41 38 31 35 38 28 32 32 33 32 29 27 28 30 33 32 31 30 30 30 30 32 33 33 33 34 34 35 34 33 32 32 31 31
49 53 52 46 41 39 45 46 43 41 46 45 42 45 46 40 31 28 33 34 27 28 27 27 28 29 30 31 30 28 29 29 29 26 24 25 27 27 27 28 29 31 32 32 31 32 32 33 33 33 33 32 32 31

GFSWCAN_con_lsi_102.txt.gz
Lid_Strength_Index
0 0 0 -0 -0 -0 -1 -1 -1 0 0 -0 -0 -0 -0 0 1 2 4 3 5 10 11 12 11 12 11 10 11 11 11 11 12 13 14 16 15 15 14 13 13 14 15 15 14 16 17 11 12 11 9 10 9 9
-0 -0 -0 -0 -0 -0 -1 -1 -1 -1 -0 0 0 -0 -0 -0 1 2 4 2 3 8 10 9 10 10 11 12 11 11 11 10 9 12 14 15 16 15 14 16 12 14 11 13 12 13 9 10 9 9 9 9 9 9
-0 -0 -1 -1 -0 -1 -1 -1 -1 -1 -0 0 0 0 1 0 0 2 3 4 4 9 9 10 12 10 9 10 9 10 9 9 11 11 13 13 14 13 14 13 12 12 12 11 12 12 10 11 11 10 10 10 10 10
-0 -0 -1 -0 -1 -1 -1 -1 -1 -1 -0 -0 0 1 1 1 1 2 4 4 5 8 11 11 8 11 9 9 8 9 9 9 10 9 12 12 13 13 13 12 11 11 12 13 12 12 12 11 11 10 10 10 10 10
-0 -0 -1 -1 -1 -1 -1 -1 -1 -1 -0 -0 0 1 1 1 1 3 4 4 4 7 11 11 10 10 9 9 8 8 8 9 10 11 12 14 14 13 14 12 14 13 13 11 11 11 10 11 10 10 10 11 11 11
-0 -1 -1 -1 -1 -1 -1 -1 -0 -0 -1 -0 0 1 2 1 2 4 7 4 4 6 9 13 10 11 11 10 10 10 10 11 11 12 14 14 14 13 13 15 15 15 13 13 12 11 12 12 12 11 11 12 13 13
-1 -1 -1 -1 -0 0 0 0 -0 -0 -0 -0 1 1 1 2 4 6 8 6 4 6 9 12 13 10 11 11 12 12 11 12 11 13 14 14 14 14 15 17 19 19 16 16 15 12 13 13 14 13 13 14 15 16
-1 -0 0 0 1 1 1 1 1 1 0 0 1 1 1 2 4 6 4 3 5 8 9 13 13 12 10 13 13 12 13 12 14 14 13 14 14 15 21 22 22 22 19 18 18 15 14 15 15 16 15 15 17 17
1 1 1 1 1 1 1 0 0 0 0 1 1 2 5 6 9 7 4 4 7 8 13 14 16 16 11 13 12 13 12 16 13 15 15 15 22 29 27 27 27 26 25 24 21 19 18 19 20 20 19 19 18 19
2 2 2 1 2 1 1 0 0 0 1 2 5 9 11 7 4 6 9 9 10 13 12 15 15 15 13 14 14 14 14 16 17 17 14 22 27 27 27 28 28 28 26 26 19 21 22 22 22 24 25 25 23 23
2 2 1 1 1 1 1 1 1 2 3 8 10 9 6 7 9 12 14 14 16 16 15 15 15 14 12 15 16 15 17 16 18 17 16 20 26 28 29 29 29 29 28 28 26 26 26 26 25 25 26 27 27 27
1 1 1 1 2 2 2 1 2 5 7 6 7 9 11 13 15 15 20 19 19 18 18 16 15 14 13 13 15 17 17 17 20 18 18 26 29 30 31 31 30 31 31 30 29 29 29 29 29 29 30 30 30 29
1 2 2 2 1 1 2 1 1 2 4 7 11 15 14 17 19 21 24 21 20 21 19 17 15 15 13 14 17 17 19 20 18 21 28 30 31 32 33 33 32 31 31 31 31 30 30 30 31 32 32 32 31 31
2 2 2 2 2 2 2 3 4 5 10 15 18 21 21 24 24 26 24 23 21 20 20 19 17 15 16 16 18 19 20 19 20 23 29 31 33 33 33 33 33 34 33 33 33 32 32 31 32 33 34 34 33 32
2 2 3 3 3 3 4 6 8 16 19 23 21 25 24 23 24 24 25 24 22 23 20 18 17 14 18 17 19 19 19 25 27 27 31 32 33 33 33 33 33 34 34 34 34 34 33 32 32 32 33 34 34 33
3 5 5 3 5 5 6 10 16 19 25 25 29 22 23 22 21 24 26 24 24 25 23 20 19 18 20 21 21 26 22 25 29 32 32 31 32 33 33 33 33 33 33 33 33 33 32 33 33 33 32 34 34 34
5 10 4 4 5 8 8 16 19 26 26 26 26 30 30 28 26 26 27 26 25 25 20 20 20 21 20 22 26 31 29 31 32 31 31 32 33 33 34 33 33 34 33 33 33 33 33 32 32 32 32 33 33 33
11 9 5 5 9 12 19 20 22 23 26 25 24 26 28 27 28 27 28 27 28 26 22 23 22 28 30 26 27 31 32 32 32 32 31 32 32 32 33 34 34 34 34 34 34 34 33 33 32 33 34 34 32 31
7 8 6 7 10 18 21 22 22 26 26 26 24 24 26 26 26 27 29 29 30 30 27 29 32 33 33 33 33 33 33 34 34 34 33 33 32 33 33 33 33 33 34 33 33 33 33 33 33 33 33 32 32 31
7 7 7 9 12 19 22 24 23 22 24 24 25 26 27 26 29 30 30 30 30 31 34 34 35 35 35 33 33 34 34 34 35 36 32 31 32 33 33 34 33 34 33 32 32 31 31 30 30 31 31 31 31 30
11 11 10 16 20 23 27 27 26 27 27 26 32 29 27 29 30 32 30 29 30 33 32 33 33 31 31 32 33 35 34 34 34 34 34 34 31 32 32 32 34 34 34 33 33 31 32 31 31 31 31 30 30 30
16 11 19 16 20 23 26 26 26 27 26 31 28 30 31 30 32 31 31 29 31 30 32 32 32 33 34 35 35 36 35 37 36 34 33 33 34 32 32 33 34 33 33 32 32 32 31 31 31 31 31 30 30 29
16 17 21 21 21 23 28 26 27 30 26 28 29 27 30 32 31 28 32 35 33 32 36 36 37 42 37 38 41 38 40 38 35 34 34 34 34 34 35 34 34 34 32 30 31 30 31 31 31 31 30 30 29 29
20 28 29 30 28 32 30 30 29 30 31 32 31 31 31 34 31 28 31 33 30 35 36 37 39 32 34 38 34 33 33 37 35 35 34 35 34 31 32 32 32 32 32 30 31 31 31 31 31 31 31 31 31 31
23 33 31 33 32 31 32 32 33 31 35 38 33 31 32 37 31 32 31 30 33 34 34 39 39 36 34 34 33 33 39 35 32 32 30 33 33 34 32 31 31 30 30 33 33 32 31 32 32 32 31 32 32 31
35 40 35 41 36 34 38 34 38 38 41 34 37 38 41 35 29 30 31 31 33 33 33 33 33 35 34 35 33 32 31 37 38 35 32 34 34 33 31 32 31 29 32 31 31 31 31 31 32 32 32 31 31 32
32 37 41 43 41 41 38 41 42 38 38 36 39 37 34 31 31 28 31 32 30 30 31 32 33 32 31 30 32 32 33 38 33 30 31 33 33 32 31 31 31 28 31 33 33 33 32 31 31 31 31 30 30 31
44 46 38 40 42 48 42 45 41 39 40 42 42 33 31 30 28 28 27 29 34 39 38 37 36 33 33 31 31 33 33 38 38 36 35 32 32 31 32 31 30 25 28 30 31 31 32 32 31 31 31 30 29 28
44 51 48 40 44 42 42 39 39 43 43 46 38 36 34 34 34 36 33 37 44 39 35 31 31 43 37 36 35 34 35 37 35 30 29 26 27 25 31 32 31 31 30 31 29 26 28 30 30 30 30 29 28 28
43 55 43 45 37 34 39 46 46 53 54 50 51 44 41 40 38 41 42 42 37 33 32 35 38 40 33 37 30 31 34 35 34 29 28 25 24 28 33 32 31 30 30 31 30 29 27 26 27 29 30 30 29 28
52 53 45 46 39 45 51 59 61 59 58 57 60 51 44 43 42 38 38 37 35 42 39 32 30 36 36 33 35 34 27 29 32 32 30 27 27 27 26 26 26 26 27 29 30 30 30 30 30 31 31 31 31 30
50 47 42 36 38 51 58 54 54 52 54 52 50 59 49 46 38 30 34 39 40 37 31 32 34 27 28 27 28 28 26 24 25 27 30 28 28 27 27 26 27 27 29 29 29 29 29 30 30 30 30 30 30 30
53 56 54 48 42 40 47 47 45 42 47 47 45 47 47 42 32 27 33 33 27 28 25 25 25 27 29 29 27 26 26 26 26 23 22 22 24 24 24 24 24 25 27 29 29 29 30 30 30 30 30 30 29 29

GFSWCAN_con_lsi_105.txt.gz
Lid_Strength_Index
0 0 -0 -0 -0 -1 -1 0 0 1 1 0 -0 -0 0 0 1 1 3 1 4 7 9 9 9 10 9 9 11 11 11 11 12 13 14 14 14 14 14 12 13 14 15 15 15 17 17 9 10 11 9 9 9 9
0 -0 -0 -0 -0 -1 -1 -0 0 0 0 0 0 -0 0 1 1 1 4 2 2 6 9 7 8 9 10 11 11 10 11 11 10 12 12 13 14 14 14 16 11 14 11 14 12 13 8 9 8 8 8 8 8 8
0 -0 -0 -0 -0 -1 -1 -1 -0 0 0 0 0 0 0 0 1 1 3 3 4 8 8 9 10 9 9 9 10 11 9 8 10 10 11 12 14 12 15 14 12 11 10 12 12 10 9 9 10 9 8 9 9 8
0 -0 0 -0 -1 -1 -1 -1 -1 -0 -0 1 1 1 1 1 1 1 3 3 4 7 9 10 8 10 8 8 10 10 10 8 9 9 11 12 13 13 12 12 12 11 11 12 12 12 11 10 9 9 9 9 10 10
-0 -0 -0 -1 -1 -1 -1 -1 -1 -1 -1 -0 1 1 1 1 2 2 3 3 3 7 9 9 9 9 9 9 9 9 9 9 9 11 12 13 13 12 13 10 13 14 13 11 11 10 9 9 9 9 10 10 10 11
-1 -1 -1 -1 -1 -1 -1 -1 -1 -1 -0 0 0 1 1 1 2 3 7 4 3 4 8 10 8 10 10 9 10 10 10 10 10 11 13 13 13 13 12 16 19 19 17 14 13 11 10 10 10 9 11 11 12 12
-1 -1 -1 -0 -0 -1 -0 -0 -0 -1 -0 -0 0 1 2 3 2 6 7 5 4 4 8 10 11 10 11 11 11 12 11 12 11 12 13 13 14 13 14 17 22 22 21 17 16 13 13 12 13 12 13 14 15 16
-1 -0 -0 -0 -0 0 0 0 0 0 -0 1 0 0 1 2 2 6 4 3 4 6 8 11 11 11 11 12 12 12 12 12 13 12 12 13 16 17 24 25 25 25 23 20 21 16 14 15 15 15 15 15 17 17
-0 0 0 0 -0 0 0 0 -0 -0 0 0 1 2 2 5 7 7 4 4 5 7 11 12 14 14 11 13 12 12 12 15 12 14 15 17 24 30 29 29 28 29 28 27 24 19 20 20 20 20 20 19 19 20
0 0 0 1 1 0 0 -0 0 0 1 2 2 5 7 6 5 5 6 7 8 10 9 13 13 13 12 12 14 13 13 15 16 16 17 24 29 27 29 29 29 30 29 28 23 23 25 23 23 24 25 25 23 23
1 1 1 1 1 1 1 0 1 1 2 4 5 7 5 6 6 8 11 12 13 12 13 13 13 13 11 14 15 15 15 15 17 17 16 22 28 29 29 31 30 31 30 29 28 27 27 27 26 26 27 27 27 27
1 1 1 1 1 1 0 1 1 3 5 5 5 6 6 9 10 12 16 14 15 16 16 15 14 14 12 12 13 15 16 15 19 16 20 26 29 30 31 32 32 32 32 31 30 29 29 29 29 29 29 29 29 29
1 1 1 1 1 1 1 1 2 2 3 5 8 11 11 14 17 17 18 16 16 19 17 17 14 14 12 12 15 15 17 19 16 22 29 30 31 31 32 33 33 32 32 32 31 30 29 30 30 31 31 31 29 29
2 2 2 2 2 2 4 4 5 5 8 13 13 18 18 19 20 21 21 21 19 19 20 20 16 15 14 15 16 17 18 18 19 24 29 30 33 33 33 33 33 33 33 32 32 31 31 30 30 31 32 32 31 31
3 2 3 3 4 3 5 7 9 14 16 18 16 20 20 20 20 21 21 21 20 22 21 17 15 13 16 16 18 17 18 24 27 29 30 32 33 33 34 34 34 34 33 33 32 32 32 31 31 31 32 32 32 32
4 5 4 3 5 6 7 10 14 15 20 20 24 19 21 19 19 21 23 22 22 25 22 20 15 16 19 19 21 26 21 25 29 31 31 31 32 33 34 34 34 34 33 33 32 32 32 32 33 32 31 32 32 33
5 8 4 4 6 8 8 13 15 21 21 20 23 24 25 23 24 23 25 25 24 24 18 16 18 20 18 20 25 29 28 29 31 30 30 31 33 33 33 33 33 33 33 33 32 32 32 31 30 31 31 31 32 31
9 8 5 5 9 11 16 16 17 18 21 22 21 23 23 23 23 24 26 25 26 23 20 22 20 26 28 23 26 29 30 31 30 30 31 31 31 31 31 32 32 32 32 32 32 31 31 31 30 31 31 31 30 29
7 7 7 7 10 15 17 18 17 21 23 22 21 21 23 23 24 25 24 25 25 25 22 23 28 29 30 30 30 30 30 31 32 32 31 31 31 32 32 31 31 31 32 32 31 31 31 31 31 31 31 30 30 29
7 7 7 9 10 14 18 20 17 18 20 21 22 23 23 23 25 24 24 26 24 25 30 30 32 31 31 30 30 31 31 31 32 32 29 29 29 31 31 31 31 32 31 30 30 30 29 29 28 29 30 31 30 29
10 10 10 13 17 20 23 23 22 23 21 22 25 24 22 22 24 25 26 24 26 30 29 30 30 29 29 30 30 31 32 31 32 32 31 32 29 31 31 30 30 31 31 30 30 29 29 29 29 30 30 30 29 29
13 11 15 13 16 19 22 23 22 22 21 24 22 23 25 25 25 26 27 24 27 27 28 28 29 30 30 31 31 32 31 34 32 32 32 32 32 30 30 30 31 31 30 30 30 30 29 29 29 30 30 29 29 28
15 15 18 19 18 20 24 21 22 25 21 24 21 21 24 24 25 25 26 27 26 27 30 30 31 34 34 33 36 34 35 35 31 29 29 29 29 30 30 30 30 31 30 28 27 29 28 28 29 30 28 28 28 28
19 26 26 26 24 25 23 25 23 23 24 26 24 24 26 28 28 21 24 24 23 27 28 30 32 28 29 33 29 27 28 31 30 29 28 30 29 27 27 28 28 28 28 28 28 28 28 28 28 28 28 28 28 29
21 31 28 30 27 26 27 26 27 26 27 29 25 25 27 31 23 24 23 22 23 24 25 28 29 28 27 26 26 26 32 30 28 28 26 28 28 28 27 25 26 26 26 28 28 28 28 28 28 29 28 29 29 29
32 36 31 32 30 28 31 27 31 32 31 27 29 29 31 26 23 24 22 21 23 23 23 24 24 25 26 28 27 25 25 30 31 30 27 27 29 29 29 29 28 26 26 28 28 28 28 28 28 29 29 28 29 30
29 32 35 37 35 34 32 33 34 30 30 30 30 30 27 26 25 22 21 24 23 22 24 24 25 25 25 24 25 26 27 31 31 27 26 28 28 28 28 29 28 25 26 29 29 30 29 29 28 28 28 27 27 27
36 38 34 36 36 38 36 34 33 33 31 34 36 30 27 25 24 20 21 22 23 27 27 27 28 27 27 26 26 27 28 29 32 32 31 29 29 29 29 29 28 24 26 27 27 29 29 29 29 29 28 28 27 26
36 42 42 38 38 33 33 31 30 33 36 34 30 28 27 26 25 25 24 28 33 31 29 26 24 31 31 31 30 30 30 30 30 29 26 23 22 22 27 29 28 28 28 28 26 24 26 28 28 28 28 27 26 26
39 46 36 39 35 30 33 39 36 43 44 43 45 40 36 34 33 31 32 32 31 28 26 26 27 30 28 28 26 26 28 29 30 26 25 23 21 22 27 26 26 26 26 27 28 27 25 25 26 28 28 28 27 27
44 43 37 36 34 37 43 49 50 50 48 46 49 45 37 38 38 34 33 30 29 30 31 28 27 29 30 29 29 28 25 24 29 29 27 25 25 25 25 24 24 24 24 25 26 27 28 28 28 29 29 29 29 29
40 40 37 33 34 43 47 44 43 42 42 43 40 48 43 38 33 25 28 33 33 30 28 28 27 24 24 24 25 25 24 23 24 25 27 27 26 26 25 25 25 26 26 27 27 28 28 29 29 29 29 29 29 29
43 44 43 39 37 36 40 42 38 37 40 38 36 39 38 36 31 25 29 31 25 23 22 23 23 23 26 27 26 25 25 24 24 23 22 22 23 23 23 23 23 24 25 26 27 28 28 29 29 28 28 28 28 28

GFSWCAN_con_lsi_108.txt.gz
Lid_Strength_Index
1 -0 -0 -0 -1 0 1 2 1 1 0 -0 -0 0 0 1 1 2 4 2 5 8 9 7 7 8 7 8 11 10 10 11 12 13 14 14 15 15 16 14 14 15 16 16 17 21 20 13 13 13 12 13 12 11
0 0 -0 -0 -1 -0 0 1 1 1 0 0 0 0 1 1 1 1 5 2 3 7 8 6 6 6 7 8 9 9 10 11 10 12 13 13 14 16 17 16 12 16 13 15 15 16 12 11 11 11 10 11 11 11
1 0 -0 -0 -0 -1 -0 0 1 0 0 0 0 0 1 1 1 2 4 3 5 8 9 8 9 7 6 7 8 11 9 8 9 10 12 12 14 14 17 15 15 14 14 15 15 15 13 12 12 11 10 10 10 10
0 1 -0 -0 -1 -1 -0 -0 1 1 1 1 1 1 1 1 1 2 4 4 4 8 10 9 6 8 6 7 8 9 10 9 8 10 12 13 14 13 14 14 14 15 14 16 15 15 14 14 13 11 11 11 11 11
0 0 -0 -0 -0 -1 -1 -0 0 1 1 1 1 1 1 2 2 3 3 4 4 7 10 11 9 8 8 8 8 8 9 11 10 12 12 14 14 15 15 14 20 19 20 17 17 15 13 12 11 11 12 12 13 13
0 -0 -1 -0 -1 -1 -1 -1 -0 0 1 1 1 1 1 2 3 5 8 4 4 5 9 14 9 9 9 9 9 9 10 10 10 12 13 14 14 14 15 21 22 23 22 19 19 18 13 12 12 12 13 14 14 15
-0 -1 -1 -1 -1 -1 -1 -0 -0 -0 -0 0 1 1 2 2 4 7 8 6 4 5 8 13 12 10 11 10 11 11 11 12 12 12 13 14 15 15 19 23 25 25 25 21 21 19 15 15 16 16 16 16 17 18
-0 -0 -0 -1 -1 -0 -0 -0 -0 0 -0 -0 0 1 2 2 4 7 5 3 5 8 8 14 13 11 10 12 12 11 12 12 13 13 13 15 19 20 28 27 27 28 26 23 25 20 18 18 18 18 17 17 19 20
-0 -0 -0 0 0 -0 -0 -0 0 0 1 1 2 2 4 7 8 8 4 4 5 9 14 14 15 15 10 12 12 12 12 15 13 15 18 20 27 34 31 30 30 30 30 29 27 23 22 23 23 24 23 22 22 22
0 0 0 1 0 0 0 0 1 1 2 2 4 7 11 9 4 6 8 10 12 12 12 13 12 14 12 12 14 14 13 15 17 18 19 27 32 29 30 30 30 30 30 29 28 27 27 28 26 27 28 27 26 25
0 1 1 0 0 0 1 1 1 1 2 6 9 11 7 4 8 12 15 16 16 16 17 14 13 14 11 15 15 14 15 15 18 19 20 25 31 30 31 31 31 31 30 30 29 28 28 29 29 29 29 30 30 30
1 0 0 0 1 1 1 0 1 4 5 6 7 8 9 11 14 17 19 17 19 21 17 18 15 13 12 12 13 14 16 15 21 18 23 30 31 32 32 33 32 32 32 32 31 30 29 30 30 29 30 30 30 30
1 1 1 1 1 2 2 2 1 1 3 7 11 15 14 16 21 23 21 22 21 21 19 19 17 13 12 12 14 15 17 20 17 26 31 32 32 33 33 33 33 32 32 32 32 31 30 30 31 31 31 31 29 30
1 2 3 2 2 4 4 5 4 6 11 15 17 20 20 25 24 25 26 23 21 20 23 22 19 15 14 16 16 18 18 19 22 28 32 33 34 34 33 33 34 34 33 33 32 32 31 30 30 31 31 31 30 31
3 3 3 4 4 4 6 7 9 13 16 20 19 23 23 22 21 22 22 22 22 23 23 21 18 15 18 18 18 18 20 27 29 30 32 33 33 33 34 34 34 34 34 33 33 32 32 31 31 31 31 31 31 31
5 5 5 3 6 5 8 11 13 16 20 23 26 22 23 21 22 22 24 24 24 26 25 23 22 20 21 22 24 28 24 28 30 32 32 32 33 34 35 34 34 34 34 33 33 33 32 32 32 31 30 31 31 31
6 9 5 4 7 8 8 15 17 21 22 22 23 22 23 23 24 24 25 26 24 27 24 22 24 26 21 24 28 30 30 30 31 31 30 32 33 34 34 34 33 34 34 33 33 32 32 31 29 30 32 31 31 30
11 9 6 6 10 12 18 17 19 21 22 21 21 23 24 24 25 26 27 25 28 28 25 28 24 30 32 28 29 30 30 30 29 30 30 31 31 31 33 33 33 32 32 32 32 31 31 31 30 31 31 31 30 29
8 8 7 7 11 17 20 21 19 23 24 22 21 22 24 25 25 25 25 26 29 29 28 29 33 35 33 31 31 30 31 31 32 31 31 30 30 31 31 31 31 31 32 31 31 31 30 30 30 30 30 30 30 29
8 7 7 9 10 17 22 23 19 20 23 24 25 28 28 27 26 26 27 25 27 30 33 34 35 34 33 33 33 32 31 31 32 32 29 29 30 32 32 32 32 32 32 31 30 29 30 30 29 30 31 31 32 31
11 12 10 15 18 21 25 26 25 27 26 27 28 27 26 26 29 28 29 26 29 31 32 33 33 33 33 35 34 35 33 32 34 35 35 33 31 32 32 32 32 33 33 32 32 31 31 31 32 32 33 32 32 31
16 11 17 14 18 22 25 25 26 25 26 29 27 28 31 31 31 30 29 28 32 33 35 35 36 37 38 38 39 40 40 41 39 37 33 33 35 34 34 34 34 35 33 32 33 32 31 31 33 34 33 32 32 31
15 15 19 20 21 23 28 24 27 27 28 28 26 28 30 31 32 29 31 34 33 34 37 37 38 40 40 40 42 42 42 43 41 37 36 35 34 33 32 33 35 35 34 31 32 33 32 30 31 31 33 32 32 31
19 27 26 28 26 30 28 28 27 27 29 30 30 31 31 35 31 27 30 32 32 35 37 37 40 37 39 41 39 36 38 38 39 38 36 39 37 35 35 33 34 32 30 30 33 32 31 31 31 32 32 32 32 32
22 31 30 31 30 29 30 30 31 29 34 34 32 32 32 36 29 31 30 30 32 33 33 38 38 36 36 36 34 35 38 37 37 36 34 34 37 36 34 33 32 30 31 36 35 34 33 34 34 33 33 33 32 31
35 39 36 38 35 34 37 34 37 37 37 34 35 35 37 34 30 29 30 30 31 31 32 32 33 34 35 32 34 34 33 38 39 39 34 33 34 36 35 33 30 28 33 32 35 34 32 31 32 32 30 30 29 30
32 37 40 41 40 39 38 39 40 38 37 36 37 35 33 30 31 28 30 31 30 30 31 31 30 31 31 32 32 32 35 35 33 32 34 35 32 30 30 30 31 28 34 34 34 34 32 31 30 30 29 28 28 28
41 43 35 40 41 42 40 40 38 37 37 39 40 34 31 30 28 28 27 29 33 34 34 35 34 32 31 29 32 34 34 34 37 35 33 31 31 30 30 29 28 24 27 28 29 30 31 31 30 30 29 29 28 27
43 46 44 39 42 39 39 37 37 40 42 42 37 35 33 31 32 34 32 35 39 37 36 35 32 37 37 35 34 32 32 35 34 33 30 26 28 27 30 30 30 31 31 31 28 25 27 28 28 28 28 28 27 26
42 49 41 43 37 34 39 45 45 50 49 48 49 44 40 38 36 37 39 39 36 32 32 33 34 35 33 35 32 31 32 31 30 29 29 25 24 29 33 32 30 28 28 29 28 28 25 25 26 29 30 30 29 28
46 48 42 41 39 43 49 53 55 54 53 53 54 51 43 41 40 38 35 33 33 37 36 32 31 33 33 33 34 35 29 29 30 30 29 27 27 27 27 26 26 26 26 26 27 27 27 28 28 29 29 29 29 28
45 45 40 35 37 48 53 50 49 49 49 50 48 53 48 45 38 30 33 36 38 36 31 31 30 25 26 26 28 28 26 28 29 27 29 28 28 27 27 27 26 26 27 28 28 28 28 29 29 28 28 28 27 26
48 49 48 44 40 39 44 45 43 43 46 46 43 44 45 41 33 28 33 31 27 26 24 25 25 27 29 29 28 28 27 27 26 23 22 22 23 23 24 23 23 24 24 25 25 25 27 27 27 27 27 26 25 25

GFSWCAN_con_lsi_111.txt.gz
Lid_Strength_Index
1 -0 0 0 0 0 0 1 1 0 -0 -0 0 1 0 1 1 5 5 5 8 12 11 8 8 8 7 8 10 8 9 9 10 13 13 14 14 13 14 15 14 15 16 16 18 22 18 13 10 12 12 14 13 11
0 -0 -0 -0 0 1 0 1 1 -0 -0 -0 0 1 1 1 2 3 8 4 5 9 9 7 7 6 7 7 8 8 9 9 8 11 12 12 14 14 14 16 12 15 13 15 14 16 12 13 12 12 12 13 13 12
-0 -0 -0 -0 -0 1 1 1 1 0 0 0 1 1 1 1 1 3 5 6 7 9 9 8 9 6 5 6 6 8 8 7 8 8 11 11 14 13 15 15 14 14 14 14 15 15 15 13 13 11 12 12 12 12
-0 -0 -0 -0 -0 1 1 1 1 1 0 1 1 1 1 2 2 3 6 5 7 8 12 10 5 7 5 5 6 7 8 8 8 8 11 11 13 13 14 13 14 18 15 16 17 16 15 13 13 12 12 12 13 13
0 -0 -0 -0 -0 -0 0 1 1 1 1 1 1 2 2 2 2 4 5 5 5 10 13 10 9 8 7 7 7 7 8 10 11 11 12 12 13 13 13 16 23 22 23 20 18 19 19 14 15 12 13 14 14 14
-0 -0 -1 -1 -1 -0 0 1 1 1 1 1 2 2 2 2 3 6 9 7 6 5 9 13 10 9 9 7 8 8 9 11 11 11 12 12 12 13 18 24 24 24 24 22 23 21 19 16 16 15 15 16 15 15
-1 -1 -1 -1 -1 -1 -0 0 1 1 1 2 2 2 2 3 6 8 9 7 5 6 10 13 15 11 10 8 10 10 11 11 11 12 12 13 15 16 22 26 26 27 26 23 23 21 18 19 19 18 17 17 18 19
-1 -1 -1 -1 -1 -0 -0 -0 0 0 1 2 2 2 2 3 5 9 8 4 6 8 13 18 15 13 10 13 13 10 12 11 12 12 15 17 21 25 31 29 28 29 28 25 26 22 21 20 21 22 20 19 21 21
0 -0 -1 -0 -0 0 0 1 1 1 1 2 2 3 7 9 13 12 4 5 7 11 18 19 20 19 11 12 12 11 11 15 13 17 20 22 30 37 32 32 32 31 31 30 28 24 24 25 26 26 26 25 24 24
0 0 0 1 1 1 1 1 1 1 1 2 6 11 15 14 5 6 12 15 15 17 17 15 18 14 12 14 14 13 12 15 18 19 21 30 33 30 31 31 31 31 31 30 29 29 29 28 28 29 30 29 28 27
1 1 1 1 1 1 1 1 1 3 3 9 13 15 10 5 12 17 19 20 21 21 21 20 18 16 12 17 16 12 14 14 19 19 22 29 33 31 31 32 31 31 31 31 30 29 29 29 29 29 30 30 30 30
1 1 1 2 2 1 1 1 2 7 10 9 10 12 14 17 20 19 24 21 23 25 21 23 19 15 15 13 14 14 15 15 21 21 25 32 31 32 33 33 33 32 32 32 31 31 30 31 30 30 30 30 30 29
2 2 1 2 3 2 2 2 2 3 6 12 16 20 19 23 24 28 29 26 27 24 23 23 24 18 15 13 15 15 17 19 19 27 31 32 32 33 33 34 33 33 33 32 32 31 30 31 31 31 31 30 29 29
1 2 2 2 3 3 4 5 4 8 14 19 22 24 26 30 31 31 30 29 23 22 24 24 27 21 19 17 15 17 17 19 24 27 31 32 33 34 33 34 34 34 34 33 33 32 32 31 31 31 31 31 30 31
4 3 3 4 4 5 5 6 8 17 21 25 23 28 27 25 25 26 25 24 23 24 25 24 23 18 22 21 19 18 20 27 28 29 31 32 32 33 34 34 34 34 34 33 33 32 32 32 31 31 31 31 30 30
5 6 7 4 6 6 7 13 17 20 24 26 27 26 26 27 27 26 26 25 23 25 25 25 27 24 25 26 24 28 25 28 30 32 31 31 32 33 34 34 34 34 34 33 33 32 32 32 31 31 30 31 31 30
7 14 5 5 7 9 8 18 20 25 26 26 24 27 27 27 26 24 26 25 23 26 23 26 25 28 24 27 29 30 29 30 31 31 30 31 32 33 33 33 33 33 33 33 33 32 32 31 30 31 32 32 31 30
14 11 6 6 13 14 21 21 23 23 23 23 25 27 27 26 27 26 26 24 26 27 25 28 26 32 35 30 30 30 30 30 29 29 30 30 31 31 32 33 32 32 33 32 32 31 31 31 31 32 32 32 31 30
11 8 7 7 13 20 21 21 22 25 27 27 25 26 27 28 28 26 27 25 26 28 29 31 34 38 35 33 31 30 31 32 32 31 31 30 30 30 31 31 31 31 32 32 31 31 31 31 31 31 31 31 32 31
8 7 7 10 13 20 23 25 23 24 29 27 31 31 32 30 29 32 30 27 29 32 32 33 36 35 35 34 34 33 32 31 33 33 31 30 31 34 33 34 32 32 32 32 31 30 31 30 30 31 31 31 32 31
12 12 11 17 21 24 27 29 27 30 30 28 33 31 30 32 33 33 31 29 29 31 31 34 36 37 37 37 37 37 36 34 34 35 35 34 33 32 33 34 35 36 36 35 35 33 34 34 34 34 35 34 34 33
18 11 19 16 21 24 26 28 28 28 28 32 29 33 33 33 34 33 32 30 34 35 37 37 38 40 41 40 40 42 41 43 44 40 35 35 35 35 33 33 34 34 34 35 35 34 33 34 35 36 37 34 34 33
16 16 21 21 21 24 28 27 28 29 28 29 30 29 32 34 34 30 32 38 35 36 40 40 41 44 42 43 45 44 46 44 42 41 40 39 37 36 35 33 36 36 34 32 34 34 33 31 32 32 34 34 34 33
20 28 28 29 27 31 30 29 29 30 31 31 32 31 31 36 32 29 31 37 33 40 39 39 43 40 42 43 42 40 39 41 43 42 40 41 38 36 39 36 36 34 32 31 34 35 34 34 33 34 35 35 34 33
23 32 31 32 33 31 32 32 33 31 35 38 33 32 32 37 31 32 30 30 35 36 37 42 42 40 37 40 38 37 42 38 38 39 36 37 40 39 35 36 34 32 34 38 35 37 35 38 37 36 34 34 33 31
36 42 36 43 37 34 39 35 39 37 41 35 36 38 40 36 30 28 31 32 35 34 35 34 35 38 38 35 36 36 34 39 39 39 34 37 35 35 35 35 31 29 35 33 35 36 33 33 34 35 33 32 31 32
33 37 42 45 43 43 41 43 44 40 38 35 38 37 36 31 31 28 31 32 31 30 31 31 31 31 30 33 34 34 38 36 32 31 36 37 34 33 31 30 31 28 36 37 36 36 34 32 31 31 30 29 29 29
41 44 34 40 42 47 41 45 41 36 38 43 41 35 32 29 27 27 27 30 34 37 37 38 35 32 32 31 33 36 36 40 39 37 34 31 30 30 31 30 29 24 27 29 31 31 32 31 30 30 29 29 29 28
41 49 44 39 44 42 40 36 36 41 42 43 37 36 33 33 34 35 33 37 43 39 36 34 31 40 37 36 36 35 34 37 35 33 32 28 31 27 31 32 31 31 31 31 28 25 26 27 28 28 28 28 27 26
42 51 42 45 38 33 38 44 45 52 52 49 50 44 41 39 38 40 41 42 37 32 30 33 36 35 32 35 34 33 34 33 31 28 29 27 26 30 35 33 32 30 30 30 29 28 26 26 27 29 30 31 30 29
50 50 43 44 39 44 49 56 57 56 55 56 57 51 44 43 41 39 36 32 32 39 37 34 34 34 34 34 35 35 29 30 31 30 28 27 27 28 28 28 28 28 29 27 27 27 27 28 28 29 29 29 28 28
49 46 41 36 37 50 55 51 51 51 52 52 50 56 49 46 38 30 34 36 37 36 31 30 31 27 28 26 30 29 27 31 31 29 30 28 28 27 27 27 27 28 28 28 28 28 29 30 29 29 28 27 27 26
49 51 50 46 41 40 46 46 44 42 47 47 43 45 45 41 33 28 33 31 28 26 25 26 26 30 29 28 28 27 27 27 28 23 22 22 24 24 25 25 25 25 26 26 26 26 26 26 26 26 25 25 24 24

GFSWCAN_con_lsi_114.txt.gz
Lid_Strength_Index
0 0 -0 0 -0 0 -0 -0 0 1 1 0 0 1 1 2 3 5 7 7 9 13 10 9 7 8 8 11 12 11 10 9 10 12 13 15 15 13 14 12 13 14 16 16 15 17 19 13 9 12 10 13 12 11
-0 0 -0 -0 0 0 -0 -0 -0 -0 0 1 1 1 1 2 2 4 8 6 6 9 9 7 7 6 7 7 8 8 10 9 9 11 11 11 13 12 13 16 11 15 12 14 13 14 13 11 13 11 12 12 12 12
0 0 0 -0 0 1 0 0 -0 0 0 1 1 1 1 2 2 5 8 7 8 10 9 10 9 6 5 6 5 8 8 6 7 6 9 10 13 12 15 14 13 13 15 13 13 15 15 15 13 13 12 12 13 13
-0 -0 -0 -0 1 1 1 0 0 0 1 1 1 2 2 2 3 4 8 8 9 12 15 12 5 8 5 5 6 6 7 7 7 7 10 10 12 11 13 13 14 20 19 18 16 17 15 14 16 16 14 13 14 14
-0 -0 -0 -0 0 0 1 1 1 1 1 1 2 2 2 3 4 6 7 8 7 10 15 11 9 9 8 5 6 6 7 8 9 10 11 12 11 11 13 16 24 23 26 23 20 22 21 16 17 16 16 16 16 15
-0 -0 -0 -0 -0 0 1 1 1 1 2 1 2 2 2 3 4 8 11 8 7 8 12 17 11 9 9 8 7 7 7 8 9 10 10 11 11 14 17 24 25 25 25 24 24 23 22 19 18 17 17 18 18 17
-1 -1 -1 -0 0 0 0 1 1 2 2 2 2 2 2 3 6 9 11 7 5 7 14 13 16 12 10 9 8 9 9 9 10 10 11 13 20 19 24 28 28 28 28 26 25 25 20 21 22 21 18 19 19 20
-1 -1 -0 -0 0 1 1 1 1 2 2 2 2 2 3 3 5 10 9 4 7 11 15 20 17 15 11 14 14 9 10 9 11 12 16 20 25 27 33 30 30 30 30 27 29 27 23 22 23 24 23 21 23 22
-0 0 1 0 1 1 1 1 2 3 3 2 3 4 8 10 12 12 5 6 10 12 20 20 20 20 12 13 12 12 10 13 12 18 22 24 31 37 33 32 32 32 33 32 30 26 27 26 26 27 26 26 24 25
1 1 1 0 1 1 1 1 2 2 2 3 8 12 14 13 6 8 13 15 16 20 20 16 17 17 12 15 17 14 12 14 17 19 23 30 33 30 31 31 31 32 32 31 32 31 31 30 27 28 29 28 27 27
2 1 1 1 1 1 1 2 2 3 4 10 15 15 12 9 13 18 21 21 23 24 23 24 20 17 13 18 19 12 16 14 19 21 24 30 33 31 31 32 31 31 32 31 31 30 30 30 29 28 28 29 29 28
2 2 2 2 2 1 2 1 3 8 12 11 11 13 15 18 19 21 29 26 25 27 25 26 23 19 17 13 16 15 17 16 22 21 25 31 31 32 33 33 33 32 33 32 31 31 31 31 31 30 30 30 29 28
2 2 2 3 3 3 3 3 3 4 9 14 17 21 19 24 24 29 32 29 29 26 26 26 26 23 19 14 19 18 21 21 19 26 30 31 31 32 33 33 33 33 33 32 32 31 31 31 31 32 32 31 30 30
2 2 3 3 3 4 4 5 6 9 16 22 23 25 27 31 32 33 32 33 27 24 26 25 27 26 23 19 19 22 20 20 26 28 29 31 32 33 33 33 34 34 33 33 33 32 31 31 31 31 31 30 30 30
3 4 3 4 3 4 5 7 9 19 22 26 24 29 30 28 28 29 29 30 27 26 26 25 24 20 27 24 24 22 25 31 30 30 32 31 32 32 33 34 34 34 34 33 33 33 32 31 30 31 31 30 30 30
5 7 7 4 6 5 7 13 18 21 25 26 27 28 30 29 30 30 30 28 25 26 25 25 25 25 27 30 29 33 29 29 30 36 32 31 32 32 33 33 33 33 33 33 32 32 32 32 31 31 30 31 30 30
7 15 6 5 7 9 8 19 21 25 26 27 27 33 32 32 29 28 28 25 23 25 22 22 23 27 26 29 34 34 32 33 34 34 31 30 31 32 32 33 32 32 33 33 32 32 32 31 30 31 32 32 30 30
16 12 6 6 15 15 22 22 23 24 27 27 26 29 29 29 29 30 28 25 25 26 25 26 24 29 31 31 33 33 33 33 31 31 30 30 30 31 31 32 32 32 32 32 32 31 31 31 31 32 32 32 31 31
10 9 8 8 14 21 21 23 23 27 31 32 30 30 31 32 31 28 29 27 27 28 28 28 29 33 33 33 36 34 34 33 32 31 31 30 30 31 32 32 32 31 32 32 32 32 31 31 31 31 32 32 33 32
8 7 8 10 13 20 23 26 25 25 30 28 33 32 34 32 33 37 34 31 29 31 31 32 35 35 34 33 34 34 34 33 35 33 30 30 31 33 33 34 33 33 33 32 32 30 31 31 31 32 33 33 34 33
13 13 11 18 23 25 28 31 28 30 31 29 35 33 31 34 35 35 34 34 31 32 31 34 34 33 36 37 36 36 33 34 35 35 35 36 35 35 34 35 36 37 37 35 35 34 34 34 33 33 35 35 36 35
19 12 20 17 21 25 27 29 28 30 29 32 31 35 34 32 34 34 33 30 35 34 37 37 38 39 39 37 38 41 41 43 44 41 37 36 37 36 37 39 40 39 39 37 37 36 35 34 35 35 37 35 35 36
17 17 21 22 22 24 28 29 29 31 28 29 32 30 32 36 35 32 31 38 35 37 41 41 42 45 42 45 47 45 46 44 42 41 40 40 39 39 37 35 39 40 35 32 38 39 36 34 34 35 36 35 37 34
21 29 29 30 28 31 32 31 32 32 33 33 34 31 32 37 33 30 30 37 34 42 40 40 44 39 41 42 41 41 41 41 43 44 43 44 40 36 39 36 38 35 33 32 34 33 34 34 33 36 36 36 36 35
24 32 32 33 36 32 33 33 34 31 35 40 34 32 33 40 32 32 30 30 37 38 39 45 45 40 36 40 39 39 43 38 38 39 36 37 40 40 36 35 33 31 34 38 36 36 35 38 38 37 35 35 33 33
34 41 36 44 37 34 39 35 39 38 42 36 37 40 43 37 31 28 30 31 34 34 36 34 33 38 39 35 36 37 32 36 40 39 34 36 35 34 35 35 32 28 34 32 35 36 33 32 34 34 32 32 31 33
31 35 42 47 43 43 41 45 46 42 38 34 38 38 37 32 32 28 32 33 31 30 31 30 29 29 29 35 34 35 42 36 33 32 37 37 34 33 31 31 31 29 36 36 37 36 33 32 32 32 31 30 30 31
40 44 33 41 43 48 40 45 41 36 37 44 41 34 32 29 27 27 27 31 34 39 38 39 35 32 33 31 35 37 39 41 40 38 35 31 31 30 31 30 29 25 28 30 32 32 33 33 32 30 30 30 29 29
42 50 44 39 44 44 40 36 36 40 42 41 35 34 32 32 34 36 34 38 44 38 35 34 31 41 38 39 38 37 36 37 34 32 33 29 32 27 31 32 32 33 33 33 29 25 27 27 27 27 27 27 27 27
42 52 42 46 39 34 38 45 45 52 54 50 51 44 40 39 37 40 42 42 37 32 30 32 35 34 32 34 33 34 36 33 31 28 28 26 26 30 35 35 33 30 31 33 30 29 26 27 28 32 32 30 30 29
50 50 43 45 39 43 50 56 59 57 56 57 59 51 45 44 42 39 36 33 33 38 36 32 34 37 34 33 34 35 27 30 31 30 28 27 29 30 28 29 28 30 32 30 29 28 28 28 28 28 28 28 28 29
49 45 41 35 36 49 52 47 47 48 52 53 49 57 50 47 40 31 36 36 36 36 31 30 30 26 28 26 30 27 26 32 31 29 30 29 28 27 26 26 28 29 28 28 28 27 27 28 28 28 28 29 29 29
47 50 49 45 39 37 43 44 40 38 40 42 41 44 45 42 34 29 34 33 31 28 27 28 26 28 27 26 25 26 26 26 27 22 21 22 23 23 25 26 27 26 27 28 28 27 28 27 26 26 26 27 27 27

GFSWCAN_con_lsi_117.txt.gz
Lid_Strength_Index
-0 0 0 0 0 0 0 0 1 1 1 1 1 1 2 2 3 6 9 7 9 10 10 11 9 12 11 12 15 11 11 10 10 12 16 18 20 16 18 14 13 14 15 15 14 16 19 11 10 12 9 12 12 10
-0 0 0 0 0 0 -0 0 0 1 1 1 1 1 2 2 2 4 9 7 7 10 10 10 8 8 7 8 9 10 12 12 9 10 16 18 18 12 14 16 11 15 12 14 13 13 11 11 14 13 13 12 12 12
-0 0 0 0 -0 -0 0 1 0 0 0 0 1 1 1 2 2 5 8 9 9 12 10 11 11 8 6 6 6 9 9 7 8 7 11 11 12 13 17 13 13 11 15 12 12 13 16 15 14 15 15 13 13 13
0 0 1 0 -0 -0 -0 0 1 1 1 1 1 2 2 3 4 5 9 9 9 13 15 11 6 8 6 5 5 6 6 6 6 6 8 10 12 9 13 12 13 17 18 18 13 15 17 15 17 17 16 15 16 14
-0 0 1 1 1 1 1 1 1 1 2 2 2 2 3 3 4 6 7 8 8 10 14 12 10 8 7 6 6 6 6 7 8 9 10 10 9 9 11 15 23 23 26 23 20 23 24 22 19 19 18 17 17 16
-0 -0 -0 0 1 1 1 2 2 2 2 2 2 2 3 4 5 8 11 9 7 9 13 16 10 10 10 7 7 7 7 7 8 8 9 9 14 13 14 24 25 25 26 27 27 26 26 24 22 20 21 19 19 18
-0 -0 -0 0 1 1 1 2 2 2 2 2 3 3 3 4 7 10 12 8 5 9 13 13 15 13 10 9 8 8 8 9 8 9 10 14 20 18 23 24 27 28 28 27 25 27 23 23 24 23 22 20 20 20
1 1 1 1 1 2 2 2 1 2 2 2 3 4 4 4 6 11 8 7 8 13 15 17 15 17 12 16 15 9 9 9 10 13 17 20 24 25 31 29 28 29 29 27 29 28 26 24 24 25 24 22 22 23
1 1 2 2 2 2 2 2 3 2 2 3 4 5 9 12 14 12 5 8 11 12 19 20 17 21 14 15 13 14 9 13 13 18 22 22 28 33 31 31 31 31 32 31 30 29 28 28 28 27 27 27 25 25
2 2 2 2 2 2 3 2 3 3 3 5 8 11 15 15 7 8 14 15 17 22 21 20 18 17 13 15 20 18 16 15 19 21 22 28 30 28 29 30 31 31 31 31 33 33 32 32 31 29 29 28 27 26
2 2 2 2 2 2 2 3 3 5 6 12 16 15 13 10 14 19 21 21 25 25 26 24 23 21 14 18 20 13 19 17 20 21 23 28 30 29 29 31 31 31 31 31 31 31 30 31 31 31 30 29 28 28
2 3 3 3 2 2 2 2 3 9 13 12 12 14 17 20 21 22 32 28 27 29 29 29 25 21 20 13 18 17 20 19 23 22 24 28 28 30 31 32 32 32 32 32 31 31 31 30 31 31 31 30 30 29
2 3 3 3 3 4 4 4 4 5 9 13 17 20 18 25 25 29 31 29 30 29 28 29 28 25 22 15 19 21 23 24 23 27 30 28 29 30 32 32 33 32 32 32 32 31 31 31 31 31 31 30 29 29
3 3 3 3 3 4 5 6 6 10 16 22 22 24 26 28 31 33 34 35 29 27 29 27 29 28 26 22 22 24 24 24 31 31 29 32 32 31 31 32 33 33 33 33 33 32 31 31 31 31 31 30 30 30
4 3 3 4 4 5 6 7 10 19 22 26 24 29 30 29 30 30 32 33 29 30 28 27 26 22 28 27 26 25 28 34 32 29 32 32 33 33 32 32 33 33 33 33 32 32 32 31 31 31 31 30 30 30
6 7 7 4 5 5 7 13 19 22 26 26 28 30 32 31 32 33 33 34 28 27 26 26 27 26 29 31 29 35 32 30 30 36 34 32 31 32 32 32 32 32 32 32 32 32 31 31 31 31 30 31 30 30
7 15 6 5 7 9 9 19 21 26 27 28 29 37 34 34 33 32 30 29 25 28 25 25 24 27 27 30 32 35 31 33 37 35 33 31 31 31 31 31 31 31 32 32 32 31 31 30 30 31 32 32 31 31
16 12 6 6 15 15 23 23 24 25 29 31 28 31 33 33 30 30 27 25 25 25 23 24 24 29 31 31 31 33 32 33 33 31 29 29 30 30 31 31 31 31 31 31 31 31 30 31 31 32 32 32 31 31
9 10 8 8 14 21 22 24 24 27 31 34 33 33 34 34 33 31 33 30 27 27 25 25 27 32 31 32 33 34 33 32 31 30 30 29 29 31 32 32 32 32 32 32 32 32 31 31 31 31 32 32 33 32
8 8 8 11 13 20 23 26 26 25 30 29 34 33 35 33 35 39 38 34 31 31 31 32 33 35 32 31 32 32 31 31 35 36 32 30 31 34 34 36 34 35 34 34 33 32 33 32 31 32 33 33 34 34
13 13 12 19 23 25 28 32 29 32 33 30 36 34 31 35 37 36 37 36 32 36 32 36 37 35 37 38 38 36 32 32 33 35 36 37 35 36 36 38 40 40 40 40 38 35 36 36 34 35 35 34 35 36
20 13 21 17 22 26 27 31 29 31 30 33 33 36 36 33 36 35 35 32 35 33 36 36 38 39 40 39 38 41 40 43 44 41 37 38 38 38 38 40 40 38 39 37 38 36 36 36 37 37 38 36 35 35
18 18 23 23 23 25 29 31 30 32 29 29 34 30 32 36 36 33 31 38 35 37 41 41 42 45 41 45 48 44 43 41 40 40 40 39 39 40 40 38 40 41 36 34 38 38 36 34 34 35 37 37 38 35
22 30 30 31 29 31 34 32 34 34 34 34 34 31 32 38 35 31 30 36 34 43 42 41 45 40 42 43 41 40 40 42 43 45 44 45 41 37 41 38 40 38 36 34 37 37 37 36 35 37 37 38 36 35
23 31 32 33 37 32 34 34 35 31 35 42 35 33 34 42 33 33 30 30 37 40 40 48 46 41 36 40 39 40 45 39 38 38 36 37 40 39 35 37 34 32 35 38 36 37 35 38 38 37 36 38 34 32
32 40 35 43 36 32 38 33 37 37 43 37 37 41 45 38 32 29 31 31 35 35 37 35 33 40 40 36 36 37 33 39 40 38 34 37 36 35 35 35 32 28 36 35 36 36 34 34 35 34 32 33 32 32
29 34 43 48 44 44 42 46 47 42 38 33 37 38 36 31 32 27 31 33 31 30 31 30 29 29 29 35 35 36 43 36 33 33 39 39 36 34 32 31 31 29 36 36 37 36 34 33 33 32 31 30 32 32
40 44 33 42 43 49 40 45 41 37 36 43 40 33 32 29 26 26 26 32 36 40 38 38 36 33 33 33 36 37 41 42 41 38 35 30 30 31 31 30 28 24 29 32 31 31 32 31 30 30 30 30 29 28
41 49 44 39 44 45 40 35 35 39 43 41 34 34 32 32 34 36 34 39 45 38 35 34 32 41 40 41 41 40 38 35 33 33 33 29 31 26 31 31 31 31 32 33 28 25 27 29 28 29 28 27 26 25
42 52 41 45 37 33 36 44 44 52 53 50 51 45 41 40 38 42 43 43 37 32 30 31 34 32 29 30 30 34 34 32 29 27 27 25 25 30 34 33 32 31 30 30 29 29 26 25 26 30 30 29 29 30
46 47 41 42 36 41 49 55 56 56 55 55 58 51 45 44 43 40 38 36 35 39 36 34 36 35 31 32 31 31 26 29 29 28 25 24 27 28 28 27 26 27 28 28 28 29 28 29 31 30 30 31 31 30
43 41 37 33 33 44 50 48 43 44 48 49 48 54 48 46 40 32 38 38 37 35 31 28 27 25 27 25 25 23 22 24 26 27 27 26 26 25 25 25 25 26 27 27 27 27 29 30 30 31 30 30 31 31
47 47 45 41 36 35 41 42 39 37 39 43 42 45 44 41 34 29 35 35 34 33 30 28 26 26 25 25 24 24 23 23 23 21 20 21 22 22 23 24 24 24 25 27 28 29 29 29 29 30 31 32 32 31

GFSWCAN_con_lsi_120.txt.gz
Lid_Strength_Index
0 0 0 1 1 1 1 1 2 2 2 2 2 3 3 4 5 8 10 8 9 12 12 11 11 12 12 12 14 13 14 12 14 20 20 20 22 17 19 16 15 15 16 17 16 17 21 13 11 12 14 13 13 11
0 0 0 1 1 1 1 1 1 2 2 2 2 2 2 3 4 5 10 9 7 11 11 8 8 8 9 10 10 12 13 13 11 16 17 19 21 18 21 21 12 16 12 15 13 14 11 13 13 15 15 15 14 14
0 0 0 1 1 1 1 1 1 1 1 2 2 3 3 4 4 6 10 11 10 11 11 10 11 8 7 7 7 10 10 10 10 10 15 17 18 14 17 16 16 12 15 12 13 14 16 14 14 17 17 18 16 16
0 0 -0 1 1 1 1 1 1 1 2 2 2 3 3 4 4 6 9 10 10 13 14 12 7 9 6 6 6 7 7 7 6 8 10 14 15 10 14 13 14 19 18 19 16 16 16 15 17 19 19 18 18 17
1 1 1 0 0 0 1 1 2 2 2 2 2 2 3 4 4 6 8 8 9 11 14 12 10 9 9 8 7 6 6 7 8 9 9 10 9 9 11 14 21 23 25 21 17 22 24 22 20 21 20 20 19 18
1 1 1 1 1 1 1 2 2 2 2 2 2 3 3 4 6 8 11 9 7 10 14 15 11 11 10 7 7 7 7 8 8 9 9 13 15 14 12 17 24 24 24 24 26 25 25 24 22 20 22 22 21 19
2 2 2 1 1 1 1 2 3 3 2 3 3 3 4 5 7 10 13 9 6 10 14 15 14 12 11 10 8 8 8 8 8 9 14 17 20 18 21 22 26 26 26 26 25 26 24 24 26 24 24 24 23 20
1 1 2 3 3 2 2 2 3 3 4 4 4 4 4 5 7 12 9 9 9 13 15 17 15 17 13 14 11 9 9 9 12 15 17 20 21 22 24 27 26 27 27 26 27 27 28 26 25 26 25 25 25 24
2 2 2 2 2 3 3 3 3 3 4 5 4 6 9 13 14 14 6 9 13 13 19 19 19 21 14 15 13 11 10 16 16 21 22 21 28 26 29 29 29 29 30 29 29 29 27 29 29 28 28 28 28 27
3 3 3 3 2 3 3 3 3 4 4 5 9 12 14 14 9 9 14 15 18 22 22 23 20 17 13 16 19 16 17 19 22 23 23 28 31 26 26 28 29 29 29 30 32 32 32 32 31 30 30 29 28 27
3 3 3 3 3 3 3 4 4 5 6 14 16 18 14 11 12 18 20 20 24 25 26 26 24 22 15 18 18 13 20 20 24 24 25 33 31 27 27 28 29 29 30 30 30 31 30 30 31 31 30 30 29 29
3 3 3 3 3 3 3 3 5 10 14 14 14 16 18 20 18 19 31 27 27 29 29 28 25 22 22 16 19 19 22 22 24 26 28 33 28 29 30 29 30 30 30 31 30 31 31 30 30 31 31 30 30 29
3 4 4 4 4 4 4 4 5 6 10 14 17 21 20 25 24 29 30 30 31 30 30 30 28 25 23 17 21 24 26 27 26 30 33 32 30 31 32 30 30 30 30 31 31 31 31 30 30 31 31 30 29 29
3 3 4 4 4 5 5 6 7 10 16 22 21 23 26 29 32 36 35 36 31 28 31 27 32 29 29 24 24 25 26 26 33 31 31 35 35 36 32 31 31 31 31 31 31 31 31 31 31 30 31 30 30 30
4 4 4 4 5 5 6 8 10 20 22 26 24 29 29 30 32 34 36 35 30 31 28 30 30 23 29 27 28 27 28 33 32 29 33 35 36 36 35 34 32 31 31 31 31 31 31 31 31 31 30 30 30 30
5 6 7 4 5 6 7 14 19 23 27 27 29 30 34 33 33 35 37 37 32 29 28 29 32 29 31 32 28 33 30 29 29 36 37 36 36 35 35 33 31 31 30 31 31 31 31 31 31 31 30 31 31 31
8 15 6 5 7 9 9 20 21 27 28 29 31 40 36 36 34 35 33 31 26 30 31 29 27 28 30 33 33 36 31 33 37 38 38 36 34 33 32 31 30 30 30 30 30 30 30 30 29 31 32 32 31 31
16 13 6 7 15 15 24 24 25 25 29 33 29 31 36 35 34 34 33 27 28 28 29 29 25 28 28 28 32 32 33 34 32 31 30 30 31 31 31 31 30 29 30 30 30 30 30 30 30 31 31 31 30 31
11 10 8 8 14 22 22 24 25 27 32 36 35 34 35 35 35 34 34 30 27 27 27 25 27 29 28 32 34 36 34 32 30 29 29 31 30 31 32 33 31 31 31 31 30 30 30 30 30 30 31 31 32 31
9 8 8 11 14 21 24 26 27 25 30 30 36 34 36 33 36 41 40 34 30 31 28 30 30 31 30 31 33 31 30 29 31 34 31 30 31 35 34 35 35 35 34 33 33 31 31 31 30 31 32 32 32 32
13 13 12 19 24 26 29 33 29 33 33 31 38 35 32 36 36 36 37 37 32 34 30 35 36 36 38 38 37 37 33 32 33 35 35 34 33 34 38 39 40 41 39 38 37 34 35 36 34 34 36 35 35 35
22 14 22 19 23 27 28 32 30 32 30 34 34 37 36 33 36 37 38 34 34 31 33 33 35 38 39 37 37 39 38 39 41 39 36 38 36 37 38 41 40 40 40 39 40 37 35 35 36 38 39 36 36 36
18 19 24 24 23 26 30 33 31 34 29 30 35 31 33 37 37 35 31 37 34 38 42 42 43 47 42 46 47 45 46 43 40 40 39 39 40 42 40 38 41 40 38 35 38 38 37 35 34 35 37 37 38 35
23 30 31 32 30 31 35 33 35 34 36 35 35 31 32 39 37 33 29 36 34 44 43 42 45 41 42 43 42 39 38 40 43 44 45 44 41 35 38 36 40 37 34 33 37 35 36 36 36 38 38 39 38 36
23 31 32 33 38 33 34 35 35 31 34 42 35 33 35 44 34 34 30 29 37 41 41 49 47 42 35 40 41 41 46 38 37 36 37 36 40 40 37 36 34 33 35 38 37 37 37 39 38 38 36 37 33 32
30 39 34 41 36 31 38 32 37 37 43 37 38 42 46 38 32 29 30 30 33 34 38 35 33 40 40 36 36 37 33 39 40 38 34 36 35 33 35 34 33 28 35 34 36 36 35 35 36 36 34 34 32 32
27 32 43 48 44 43 43 47 48 42 38 33 37 38 37 32 32 27 31 33 31 31 31 29 28 28 28 35 34 36 43 35 33 33 39 38 35 33 31 30 30 29 35 35 36 35 34 33 33 32 32 31 33 33
39 42 31 40 42 49 39 45 41 36 36 43 39 33 32 29 26 27 27 33 37 42 40 40 38 35 35 35 37 37 40 43 41 38 35 32 32 31 32 30 28 24 29 32 32 33 34 33 32 31 31 30 29 30
40 48 43 38 43 42 38 33 34 38 42 40 34 32 31 32 34 37 35 40 47 40 36 35 35 43 41 42 42 41 38 35 32 31 31 28 28 24 29 30 30 31 31 33 28 24 27 28 29 29 29 29 28 26
40 51 40 43 36 32 36 43 42 50 51 49 51 44 40 39 38 42 44 44 38 35 34 34 36 33 30 31 30 33 35 32 27 24 25 24 25 29 33 32 31 30 30 30 28 27 24 24 25 28 29 29 31 32
47 48 41 42 37 40 47 54 55 53 52 53 55 50 43 43 43 41 41 39 38 42 38 35 36 37 32 32 30 29 26 28 29 27 24 22 22 24 24 24 24 24 25 25 26 26 26 28 31 32 33 33 33 33
46 43 38 34 35 47 53 49 48 47 49 50 48 54 48 47 41 33 39 42 41 41 34 32 31 28 29 27 26 24 23 24 26 27 26 25 24 23 22 22 22 23 24 24 25 25 25 26 29 32 32 32 33 33
46 47 47 44 38 37 42 44 41 41 45 45 43 45 46 43 35 31 36 37 35 35 34 32 30 29 27 26 25 24 23 23 22 20 20 21 21 21 21 22 22 22 23 23 24 24 26 28 30 31 32 33 33 33

GFSWCAN_con_lsi_123.txt.gz
Lid_Strength_Index
1 1 1 1 1 1 1 0 1 1 1 1 2 2 2 3 3 7 9 8 9 13 13 11 11 12 12 11 13 12 13 13 16 19 21 22 24 19 20 18 16 17 19 23 25 26 23 13 13 14 15 15 15 15
1 1 1 2 2 2 2 2 1 2 2 2 2 3 3 3 4 5 10 8 8 11 12 10 10 9 9 10 9 12 12 13 12 16 18 19 22 17 23 22 13 17 14 17 15 16 13 14 14 17 18 18 18 18
1 1 1 1 1 2 2 2 2 2 2 3 3 4 4 4 4 6 10 11 9 11 11 11 12 10 8 8 8 12 12 10 11 12 16 19 20 16 17 17 18 14 15 13 14 14 15 15 16 18 19 19 19 18
2 2 2 2 2 2 2 2 2 2 3 3 3 4 5 5 6 7 11 11 11 13 14 13 9 11 8 7 8 9 9 8 7 10 12 14 20 13 15 14 15 20 18 20 16 16 16 17 19 20 20 19 19 19
1 2 2 3 3 3 3 2 2 3 3 3 4 4 4 5 5 7 9 10 10 12 15 13 11 10 9 8 8 7 7 8 9 11 11 18 12 11 13 12 19 23 26 21 19 25 25 22 22 21 22 21 21 21
1 1 2 2 3 3 3 3 3 3 3 4 4 5 5 6 7 9 11 10 9 10 14 16 11 12 10 8 8 8 8 8 9 10 10 14 16 16 19 15 25 25 25 25 27 26 25 24 23 21 23 22 21 21
2 2 2 2 2 2 2 3 3 3 3 3 4 4 5 6 9 12 14 11 8 11 14 15 14 12 11 10 9 9 8 9 11 11 16 16 18 16 19 25 26 26 26 26 25 26 25 25 26 25 23 23 23 22
3 2 2 3 3 3 3 4 4 3 4 4 4 5 5 5 8 13 10 10 10 14 15 16 16 15 12 12 12 10 10 10 15 17 22 22 21 22 25 26 26 27 27 26 28 27 27 26 25 25 25 25 26 25
3 3 3 3 3 3 4 4 4 4 4 4 5 6 10 14 15 15 7 10 15 15 21 21 22 21 13 15 14 14 16 20 20 26 24 23 31 31 29 28 28 28 29 30 29 28 27 29 28 27 27 27 28 27
3 3 3 4 4 4 3 4 4 4 5 6 11 14 17 18 10 10 16 17 21 24 24 27 22 22 15 18 18 18 15 22 26 26 25 30 35 27 28 30 30 30 29 29 31 31 31 31 29 29 29 28 28 28
3 3 4 4 4 4 4 4 5 6 7 14 18 18 16 12 14 20 23 24 27 27 28 27 24 25 17 19 16 14 20 21 24 25 27 36 34 28 31 32 30 30 30 31 31 30 30 30 30 30 30 29 29 28
3 4 4 4 4 4 5 5 5 12 18 16 16 18 19 21 21 21 32 29 29 30 30 29 25 24 22 17 20 21 22 22 24 29 29 31 28 30 34 34 34 33 32 31 30 30 29 29 28 29 30 30 30 28
3 4 4 4 4 4 5 5 6 7 11 16 20 24 21 27 25 28 31 30 31 30 30 31 29 26 24 19 23 23 25 27 27 30 31 30 31 33 37 37 36 34 33 33 31 29 29 29 28 29 30 30 29 29
4 4 4 4 4 5 6 7 7 11 17 23 23 25 29 32 35 37 33 33 29 27 29 28 34 29 31 24 25 25 27 27 32 30 29 33 35 37 38 38 37 34 33 32 30 29 29 29 29 28 29 30 30 30
5 4 4 5 5 5 6 8 11 21 23 27 25 31 31 32 35 36 37 35 32 33 31 32 32 24 31 28 28 29 29 31 29 26 31 34 37 38 38 38 37 35 31 30 29 29 29 29 29 29 29 30 30 30
6 7 8 4 6 7 8 15 20 23 28 27 30 31 35 33 33 36 38 37 33 30 31 32 35 30 32 32 28 30 28 28 27 35 36 37 38 38 37 37 35 32 30 28 28 28 28 29 29 29 28 29 30 30
8 16 7 6 7 10 9 20 22 28 28 29 32 43 38 37 34 36 36 32 28 31 32 34 28 28 31 32 31 35 29 31 36 38 40 38 37 37 37 36 35 32 31 29 28 28 28 27 27 28 30 29 29 28
16 13 7 7 15 16 25 24 25 25 30 35 30 32 39 37 36 37 36 31 31 30 29 29 28 31 31 29 31 32 35 38 39 37 35 35 36 35 34 34 33 32 31 30 30 29 27 27 27 28 29 29 28 28
12 10 8 9 14 22 23 24 25 27 34 38 36 35 37 37 37 36 38 34 31 29 27 27 27 30 30 33 33 38 38 36 33 31 31 32 30 32 34 35 34 34 34 35 34 33 32 31 30 29 29 29 30 29
10 9 9 11 14 21 24 27 28 26 30 31 37 35 37 34 38 42 42 37 33 34 29 28 27 30 31 33 34 32 29 29 31 31 31 31 31 35 35 35 35 35 37 38 37 33 35 33 32 32 33 32 32 31
14 15 14 20 25 28 31 33 30 34 35 32 40 36 33 37 38 38 38 38 34 32 29 34 35 35 39 38 37 36 32 32 33 33 33 34 35 36 38 39 42 43 41 41 41 38 37 37 34 35 37 34 34 33
22 14 23 19 24 28 30 34 31 34 32 36 35 39 37 33 37 39 40 35 34 30 33 34 36 38 40 37 37 39 39 39 41 38 36 38 37 37 38 41 40 39 40 38 40 38 37 37 39 39 39 34 34 34
19 20 24 25 24 27 31 34 31 35 29 30 37 31 33 38 39 37 33 36 33 38 43 41 43 47 41 47 48 46 45 40 39 40 40 39 40 41 41 38 40 39 36 34 38 37 37 35 35 36 38 38 38 36
23 30 30 32 30 31 36 34 36 36 37 35 35 31 33 40 38 34 30 35 34 45 44 43 46 42 42 43 41 39 37 40 43 45 46 43 40 35 37 34 38 37 33 36 38 36 35 36 35 38 38 39 38 37
22 30 32 32 38 32 34 35 35 32 34 43 35 33 35 46 34 34 31 29 37 40 40 49 47 41 35 39 40 41 46 37 36 34 37 36 40 40 36 36 35 33 35 39 38 37 37 40 40 39 38 38 33 32
29 38 32 39 35 31 38 31 35 36 43 36 38 43 47 38 32 29 30 30 34 34 38 35 33 40 39 37 36 38 34 40 40 38 35 35 34 33 34 34 33 28 34 32 35 35 35 35 37 36 34 33 30 31
26 31 43 48 43 42 42 47 47 41 37 33 36 37 36 32 32 27 31 33 31 33 34 31 29 29 29 36 34 35 43 36 34 35 40 38 34 31 29 29 28 28 33 34 33 32 32 32 32 32 31 32 32 32
37 42 30 40 42 48 37 43 39 35 34 41 38 32 31 29 26 28 29 35 41 43 42 41 40 37 36 36 38 37 42 44 40 38 34 31 31 30 30 28 27 23 29 30 29 29 30 29 29 29 29 29 29 32
38 46 41 37 42 43 38 33 33 37 41 38 32 31 30 31 34 37 36 41 47 41 36 36 37 44 42 43 43 43 38 34 31 30 30 27 26 23 28 28 27 27 26 26 24 23 27 27 27 27 27 28 28 32
40 50 39 42 35 31 36 43 42 51 51 48 50 43 39 38 37 43 44 44 38 33 35 37 38 35 33 33 33 34 36 32 27 24 24 23 22 23 25 25 25 25 26 26 26 25 22 22 23 26 27 28 31 34
48 48 40 41 36 41 48 54 56 54 53 54 56 49 43 43 42 41 43 42 42 42 40 36 37 39 34 34 31 29 26 28 29 27 24 22 22 22 22 22 22 22 23 24 24 24 24 25 25 26 29 31 32 34
47 43 38 33 34 47 53 49 49 48 49 49 48 54 48 46 40 33 38 43 42 42 38 37 37 31 32 29 30 26 24 26 26 26 26 25 24 22 21 21 21 22 23 23 24 24 24 25 25 26 28 29 32 34
48 49 49 45 39 37 43 44 41 41 45 45 43 44 45 42 34 30 36 37 34 35 36 35 33 33 32 31 29 27 24 23 22 20 20 21 22 21 21 21 21 22 22 23 24 24 25 25 25 26 29 32 33 34

GFSWCAN_con_lsi_129.txt.gz
Lid_Strength_Index
0 0 0 1 1 1 1 1 1 0 0 0 0 0 0 0 0 1 3 0 4 10 10 9 9 8 7 8 11 10 10 10 11 12 13 14 13 14 12 12 13 13 15 15 14 16 17 13 10 12 16 14 15 16
1 0 0 0 0 0 0 0 0 0 0 0 0 0 0 0 0 1 4 2 3 8 10 7 8 8 9 9 8 10 10 10 9 11 11 12 13 14 13 15 11 13 11 13 12 12 14 15 17 17 17 17 17 17
2 2 1 1 0 0 0 0 0 0 0 0 -0 -0 -0 -0 1 2 4 3 4 9 9 9 11 9 7 7 7 9 9 9 10 8 8 10 12 11 13 12 11 12 13 11 12 14 15 16 17 18 18 18 18 18
3 2 2 1 1 1 0 0 0 0 0 -0 0 0 1 1 1 3 5 7 5 9 12 12 8 11 7 5 6 6 7 7 7 7 9 10 11 10 12 11 11 15 15 13 15 17 15 16 17 19 19 19 19 19
3 3 3 3 2 2 2 1 1 2 2 2 2 3 3 4 4 5 7 8 8 8 12 12 10 10 8 7 7 6 6 7 8 10 11 12 10 9 10 10 16 20 21 14 14 21 21 18 19 20 21 21 20 21
3 3 3 3 3 3 3 2 2 2 3 3 3 3 4 4 4 5 10 6 9 7 11 15 11 12 11 8 9 9 9 9 9 11 12 13 14 12 11 12 22 22 22 22 22 22 22 22 21 22 23 22 22 22
3 4 4 4 4 4 4 4 4 3 3 3 4 4 5 6 10 12 12 11 9 7 11 13 13 12 12 10 10 10 10 12 11 12 14 13 14 12 10 13 23 23 23 23 23 24 22 23 24 23 23 23 23 23
3 4 4 5 5 5 5 5 5 5 4 4 4 5 6 7 8 12 11 12 8 10 11 14 15 13 12 12 12 10 11 11 16 16 15 15 14 13 17 23 23 24 24 24 24 24 25 24 23 24 24 24 25 25
4 4 4 5 5 5 5 6 5 5 5 5 6 7 9 12 12 12 10 12 14 12 16 16 15 16 13 13 12 11 11 15 16 16 18 17 16 16 23 23 24 25 26 26 25 26 26 26 26 26 25 26 26 26
4 4 4 5 5 5 5 5 6 6 6 6 7 10 11 14 11 11 13 14 18 20 18 22 20 18 15 14 13 12 13 15 16 20 18 17 22 24 25 25 25 26 26 27 29 26 27 27 27 27 27 26 25 25
4 5 5 5 5 6 6 5 6 7 7 9 10 12 13 12 11 15 20 20 20 21 24 23 22 18 17 14 14 14 15 15 16 20 18 19 18 23 25 26 26 26 26 27 27 27 27 28 28 27 27 25 25 25
5 5 5 6 6 6 7 6 6 10 12 12 12 13 12 15 14 18 23 22 24 25 24 22 23 22 18 17 14 16 16 16 18 21 18 18 22 25 26 28 28 28 29 29 29 29 28 27 26 26 26 26 26 25
5 5 5 6 6 6 7 8 8 9 11 10 14 18 16 20 21 20 21 22 23 26 26 25 21 22 18 16 17 15 16 20 22 19 17 19 24 26 28 29 30 31 32 31 29 28 28 27 27 26 26 26 26 25
4 5 5 5 6 7 8 9 10 11 13 18 17 23 23 24 27 28 26 26 26 25 26 25 22 20 21 18 19 18 23 22 19 19 17 20 25 28 30 30 31 30 32 31 29 29 29 29 28 27 28 26 26 26
5 5 5 5 6 7 8 10 12 16 18 22 20 26 27 29 29 29 30 28 27 27 26 24 23 20 20 20 20 21 21 19 18 17 20 24 28 30 30 30 31 31 32 31 28 29 29 29 27 26 25 25 24 24
6 7 8 5 6 8 9 13 15 17 22 22 26 24 28 25 25 26 27 26 26 26 25 25 21 19 22 21 19 18 17 17 18 21 25 27 30 30 30 30 30 30 30 29 28 28 27 28 27 24 24 25 26 25
8 10 7 6 7 9 10 14 16 22 23 22 26 27 25 24 25 26 27 26 25 25 22 22 18 21 23 20 19 21 18 21 23 26 25 26 28 29 30 30 31 31 29 29 28 27 27 26 28 27 27 24 26 25
11 9 7 7 11 12 18 17 17 19 24 24 21 25 26 26 25 26 26 26 26 24 23 22 21 21 19 19 18 21 24 27 26 26 26 27 28 29 28 27 29 29 28 28 29 29 28 29 27 23 26 24 26 25
10 9 9 9 12 16 17 20 18 23 26 26 26 25 25 26 28 28 27 26 26 25 24 21 19 17 17 19 20 23 24 23 25 25 24 26 26 27 28 28 28 28 27 27 27 25 25 27 26 25 24 24 24 24
10 9 10 12 12 14 19 22 19 20 22 25 25 24 25 25 28 27 26 26 25 24 21 20 18 19 20 22 23 22 22 23 23 24 24 24 25 27 26 25 24 25 27 27 27 29 26 25 24 24 24 24 25 23
12 13 13 16 20 24 26 25 26 27 27 24 29 27 24 26 25 25 25 29 24 21 19 20 21 24 28 28 27 25 24 23 22 21 20 22 24 24 24 26 27 27 27 25 25 24 29 25 22 23 24 24 24 24
16 13 16 15 20 23 26 28 25 28 24 28 26 27 23 22 24 27 33 27 22 18 21 22 23 26 29 29 29 29 26 27 29 28 31 28 26 27 26 26 28 27 27 25 24 24 23 23 24 25 26 25 26 25
17 16 19 19 21 22 28 28 24 27 23 24 27 23 24 25 28 32 26 22 21 26 28 28 31 34 29 34 36 34 35 31 27 27 26 26 25 26 27 27 27 27 26 24 25 25 25 26 27 27 25 26 26 25
20 26 25 24 23 26 28 27 26 26 26 25 24 25 25 28 33 26 22 20 22 32 32 32 33 30 32 35 30 27 29 32 28 27 28 28 28 27 27 27 26 27 26 24 26 26 26 26 26 27 26 26 26 26
19 26 26 25 27 24 25 25 26 24 27 30 27 25 27 35 25 24 23 19 23 26 27 32 31 28 24 22 23 25 31 30 28 27 26 29 26 27 28 28 27 27 26 28 28 28 26 26 27 26 25 26 25 25
25 33 27 27 26 24 25 24 27 28 29 28 26 30 33 27 26 23 21 20 21 23 27 29 28 28 28 27 23 24 26 31 28 27 25 28 28 25 24 23 24 22 26 26 24 25 25 24 25 24 24 24 24 24
24 27 34 40 34 33 32 35 36 30 29 27 25 28 26 27 25 21 20 22 21 23 26 25 24 24 21 23 26 25 31 31 29 27 29 28 27 26 24 24 24 22 25 26 25 24 23 22 22 22 21 21 21 22
31 33 26 33 34 37 30 31 30 28 25 29 27 26 26 24 21 19 21 25 28 30 30 30 29 28 26 25 26 29 31 32 33 32 30 28 29 28 28 26 25 22 24 24 24 24 23 22 21 21 21 21 21 20
31 38 34 36 36 34 31 27 26 28 32 29 25 24 23 23 24 25 25 29 34 31 28 27 27 33 32 32 33 31 32 32 29 29 28 25 24 22 26 26 25 25 24 23 22 22 23 22 21 22 21 21 21 21
36 43 32 36 32 28 30 36 34 42 43 42 44 38 34 32 32 32 33 33 32 29 28 29 29 30 28 29 28 31 33 31 27 23 23 22 22 22 25 26 25 25 24 24 24 23 20 18 17 17 21 22 23 23
42 40 34 32 31 33 41 47 48 48 46 44 47 43 36 38 38 34 35 33 32 33 33 32 32 32 31 30 29 27 26 29 30 28 26 24 24 24 24 23 22 22 23 23 23 23 23 22 22 22 22 22 23 23
40 35 32 30 30 42 46 41 40 40 41 42 39 46 42 39 34 28 32 35 34 32 31 31 31 29 30 29 27 27 28 28 27 28 27 26 25 24 22 21 21 21 21 22 22 22 23 23 22 23 23 23 23 23
41 41 41 37 34 34 39 39 36 36 39 37 37 39 38 36 32 27 31 33 28 27 27 28 29 30 31 32 31 29 28 26 27 23 22 22 23 23 23 22 21 21 21 22 22 22 23 23 23 23 24 24 24 24

GFSWCAN_con_lsi_132.txt.gz
Lid_Strength_Index
0 0 0 0 0 0 1 1 1 1 1 0 0 0 0 0 -0 1 3 2 5 9 9 8 8 7 8 9 11 9 10 11 12 13 15 18 18 17 18 15 14 14 15 16 15 17 18 16 14 14 17 17 17 17
1 0 0 0 0 0 0 1 0 1 1 0 0 0 0 -0 -0 1 5 4 3 7 9 7 7 7 7 8 7 10 10 11 10 13 14 16 19 19 18 18 13 16 12 14 14 16 17 18 19 18 17 18 19 19
1 1 0 0 0 0 0 0 1 0 0 1 0 -0 0 0 0 2 4 4 5 8 8 9 10 8 6 7 7 10 10 10 11 10 12 14 19 15 19 18 16 15 15 15 16 16 19 19 19 19 19 20 20 20
2 2 1 0 0 0 0 0 0 0 0 0 0 1 1 1 1 2 6 6 5 7 11 11 8 10 7 5 6 7 8 8 8 9 12 13 18 13 16 14 16 19 18 17 18 17 17 19 21 20 20 20 21 21
3 2 2 1 0 0 0 0 0 0 1 1 1 1 1 2 2 4 6 6 6 7 12 12 10 10 9 8 8 7 7 9 11 13 15 15 12 14 14 15 22 23 25 19 18 23 21 21 21 22 22 22 22 22
3 3 3 3 2 2 1 1 1 1 1 2 1 0 1 2 2 4 8 6 8 7 10 14 11 12 11 9 10 11 10 11 12 15 15 16 16 15 18 23 23 24 24 24 26 25 24 22 23 23 24 24 23 23
4 4 4 4 3 3 2 2 2 2 2 2 2 2 3 5 9 10 10 10 8 9 11 13 13 11 12 11 11 11 13 16 15 15 15 14 17 17 18 23 24 24 24 24 24 24 25 26 26 25 25 24 24 24
5 6 5 5 5 4 4 3 3 2 3 3 4 4 5 5 7 11 10 10 8 10 11 15 15 13 12 14 16 13 15 17 19 17 20 21 18 19 27 24 24 25 24 25 26 26 26 26 26 27 27 27 27 26
5 5 6 6 6 6 5 4 3 3 3 4 5 6 9 12 12 11 9 10 13 12 17 18 17 17 14 13 12 15 15 21 20 23 24 22 23 25 26 25 26 28 28 28 28 29 30 29 29 29 29 29 29 28
5 5 5 5 6 7 6 6 5 4 4 6 8 10 13 14 11 11 14 15 17 20 18 23 20 20 17 15 16 16 18 19 26 26 23 24 31 27 27 29 29 30 31 32 32 32 32 33 32 32 32 31 29 28
5 5 6 6 6 6 7 7 7 5 6 10 12 15 14 12 12 15 21 21 21 24 25 23 23 20 18 17 17 16 20 21 25 26 25 27 28 26 28 30 29 30 31 33 33 34 34 34 34 33 32 32 32 31
5 5 5 6 6 7 7 7 8 12 14 14 14 13 14 17 17 20 25 25 28 29 27 27 25 24 20 19 18 21 23 22 26 28 26 27 26 28 30 32 33 33 35 35 35 35 35 33 34 33 33 33 33 31
5 5 5 6 6 7 8 8 8 9 11 12 17 21 20 24 26 27 28 28 31 30 28 29 27 25 22 19 23 21 25 29 27 26 25 25 28 31 33 35 36 37 38 37 36 35 35 35 35 34 34 34 34 33
5 5 5 5 6 7 8 9 9 11 15 19 20 26 27 30 30 32 31 31 28 27 28 27 26 24 25 23 23 27 28 26 27 27 24 28 31 33 36 37 36 36 36 35 33 33 35 35 35 35 34 34 34 33
5 6 6 5 6 7 8 10 12 18 21 25 25 29 31 31 30 31 31 30 29 28 27 28 28 21 25 25 25 27 27 27 25 24 27 31 35 34 35 35 34 34 35 35 33 35 36 36 35 34 33 33 32 33
6 8 9 6 6 8 8 13 16 19 24 27 29 29 30 30 29 29 29 30 28 28 28 29 27 25 28 27 25 26 25 26 25 30 33 33 33 32 32 32 32 33 34 35 35 35 34 34 34 33 33 33 33 33
8 13 7 7 8 10 9 16 19 24 26 27 31 32 31 30 31 31 32 30 27 30 30 29 26 27 27 27 26 27 25 27 31 32 31 31 31 32 33 34 34 36 36 36 34 34 34 34 36 35 33 33 34 33
14 11 8 7 12 14 21 18 21 23 28 28 28 31 30 32 30 31 31 30 30 29 29 30 26 27 27 26 26 28 31 33 32 31 31 33 34 35 34 34 35 35 35 34 35 36 36 36 35 32 33 32 33 33
12 10 9 9 14 19 22 23 21 28 32 31 30 29 31 32 32 32 32 30 30 30 30 28 26 26 25 27 28 30 32 31 31 30 30 32 32 32 32 33 34 35 34 35 35 34 33 34 32 33 32 32 32 31
10 10 10 12 12 19 24 26 22 24 29 29 30 31 30 31 32 33 33 31 30 31 29 27 26 27 26 28 30 29 29 27 28 31 31 30 30 33 31 32 32 32 34 35 36 34 35 34 33 32 33 32 32 32
13 14 12 18 22 26 29 30 30 31 31 31 34 31 30 31 32 32 32 34 32 29 26 27 28 32 35 35 34 33 29 29 29 28 28 29 29 29 32 33 35 36 35 35 35 34 31 31 32 32 33 34 33 32
19 13 19 17 22 26 29 31 29 31 30 34 32 33 32 32 34 35 38 34 30 26 27 29 31 34 36 36 36 36 35 34 36 35 33 31 33 33 34 33 34 34 34 32 32 30 30 30 32 33 34 33 30 32
17 17 21 22 24 26 31 31 31 32 30 31 33 30 31 34 36 36 33 31 29 34 36 36 38 41 37 42 42 40 40 37 35 35 34 34 34 34 35 34 32 32 32 31 31 30 31 31 32 33 33 32 32 30
20 26 27 28 26 30 32 32 30 31 32 32 31 31 32 36 36 33 31 30 30 38 39 39 40 39 39 40 39 35 34 36 37 35 35 33 34 33 32 32 32 30 29 34 33 34 33 32 30 31 30 29 28 26
22 27 28 29 31 29 31 31 32 31 31 35 32 31 33 40 33 33 30 27 32 36 35 38 39 36 33 32 32 33 35 32 31 30 33 30 35 36 36 35 31 29 31 33 33 31 31 31 29 29 28 27 26 24
27 34 30 33 31 29 32 30 32 32 35 33 34 36 38 34 32 29 28 27 29 29 31 30 30 34 33 29 31 33 32 33 33 33 33 30 29 28 28 29 30 27 27 27 29 29 29 28 28 27 26 25 23 23
26 30 38 42 38 36 36 39 39 35 34 32 34 35 33 30 30 26 27 29 28 30 31 28 26 26 28 31 31 34 37 30 31 32 36 35 31 28 26 27 27 26 29 28 26 25 25 24 24 24 23 22 22 22
34 36 27 36 38 40 35 37 36 34 33 35 33 31 30 28 25 26 27 31 34 35 35 36 35 34 33 32 34 34 38 39 39 37 35 33 32 31 29 27 30 23 29 27 26 25 24 23 22 22 22 22 21 21
36 40 36 38 40 39 36 32 32 34 39 35 31 30 28 28 31 32 32 35 39 37 36 35 34 39 39 39 39 38 36 34 32 32 32 29 30 26 28 28 28 27 26 26 23 23 25 23 23 22 22 22 21 21
38 44 36 39 34 31 35 41 40 47 46 46 47 41 38 36 35 37 38 39 37 34 33 34 35 34 33 33 35 37 35 33 30 26 27 26 26 29 30 30 29 29 28 26 25 24 21 20 19 20 22 24 23 23
44 43 37 36 35 40 46 50 50 50 49 49 51 48 42 40 39 37 35 33 35 38 38 36 36 36 35 34 32 31 29 31 31 29 29 32 32 32 31 30 29 29 28 27 26 24 24 24 24 23 23 23 22 23
43 39 36 32 34 46 49 46 45 45 46 47 46 50 46 44 38 31 36 38 38 37 33 33 33 30 31 29 30 29 29 32 30 29 30 28 28 29 29 28 27 27 27 26 25 24 24 24 23 24 23 23 22 23
44 43 43 40 37 37 43 42 40 40 42 42 41 43 43 41 34 29 35 33 31 29 28 28 28 30 30 31 30 30 29 29 29 24 25 25 26 26 29 28 27 26 25 24 23 23 23 23 23 23 23 23 23 24

GFSWCAN_con_lsi_135.txt.gz
Lid_Strength_Index
0 0 0 0 0 0 0 0 0 0 0 0 0 -0 -0 -0 -0 1 3 3 5 9 8 8 8 8 8 9 10 9 9 10 11 13 13 15 18 17 16 15 13 14 15 16 15 17 19 18 16 14 17 18 18 18
0 0 0 0 0 0 0 0 0 0 0 0 0 -0 -0 -0 -0 1 5 4 4 7 8 6 7 6 7 7 7 9 11 12 9 13 16 15 18 19 17 16 14 16 14 15 16 17 19 19 20 18 17 19 20 20
0 0 0 0 1 0 0 0 0 1 1 0 0 0 -0 -0 -0 2 5 5 5 8 8 9 9 7 6 7 6 10 10 9 10 9 12 14 18 16 19 20 18 16 17 17 18 19 20 20 20 20 20 21 20 21
1 0 -0 0 1 1 1 0 0 0 0 0 0 -0 -0 -0 0 3 7 7 6 10 11 10 6 10 7 6 6 6 7 7 8 10 12 15 18 14 17 16 17 20 18 19 19 20 21 21 21 21 21 21 22 22
3 2 1 -0 0 1 0 0 0 0 0 0 0 0 1 2 3 4 6 7 7 9 13 11 9 8 8 7 7 7 7 9 11 13 15 15 13 16 17 18 25 25 22 19 19 21 21 22 23 22 23 23 23 23
5 3 2 1 0 1 1 1 0 0 1 1 1 1 2 2 2 5 9 7 7 7 10 13 9 10 10 8 10 11 11 12 12 15 15 17 17 15 22 29 24 25 25 26 25 26 24 24 25 24 24 24 24 23
5 5 4 3 2 1 1 1 1 1 1 1 2 3 3 4 8 11 12 10 6 6 10 12 13 11 11 10 11 11 13 16 15 18 16 16 18 18 24 27 26 26 26 26 26 24 26 27 27 26 25 25 24 24
5 5 5 5 3 2 1 1 1 1 2 2 2 3 3 4 6 10 9 8 6 8 10 14 14 13 12 14 14 13 15 18 19 20 22 22 20 24 29 25 26 26 27 28 28 27 27 26 27 28 29 29 29 27
5 6 6 6 6 4 2 2 2 2 3 3 4 4 7 10 10 10 7 9 12 12 18 21 19 17 14 13 14 15 15 20 22 25 25 22 26 27 28 26 27 28 29 29 29 30 30 30 30 32 32 32 32 31
5 5 6 6 6 6 5 3 2 3 4 5 7 9 11 13 9 8 13 14 17 20 20 23 21 22 17 16 18 16 19 21 23 25 24 28 34 28 29 31 30 31 31 30 32 34 35 35 34 34 34 34 33 32
5 5 6 6 7 7 6 6 3 4 6 11 14 16 12 10 11 15 20 20 21 23 25 24 23 21 18 18 18 16 21 23 26 26 26 32 29 28 31 32 31 31 32 35 35 36 35 35 34 35 34 35 35 35
5 5 5 6 6 7 8 7 8 13 14 13 14 13 15 19 19 19 24 23 26 27 26 25 24 23 20 18 17 18 21 21 25 31 27 28 26 30 31 33 35 34 33 35 37 35 36 35 36 36 36 34 34 34
5 5 5 6 6 7 8 8 8 9 10 14 18 22 20 26 28 28 32 30 29 30 29 28 24 23 19 18 19 19 21 28 30 28 28 27 30 31 33 34 36 39 39 39 37 38 38 37 36 34 33 34 35 35
5 6 5 6 6 7 9 10 10 13 18 22 22 26 28 30 31 32 32 32 29 29 30 29 29 24 24 21 22 23 28 28 30 28 26 29 31 32 35 38 36 36 38 37 36 36 34 34 33 34 33 33 34 34
6 6 6 6 7 7 9 11 13 21 24 28 26 31 30 31 31 31 32 33 30 30 30 30 29 23 26 25 26 28 28 29 27 24 27 32 35 33 35 37 36 35 35 36 36 35 34 34 34 33 34 34 36 37
7 9 10 6 7 8 10 16 21 24 29 29 31 30 33 32 32 34 35 34 30 30 31 31 31 27 29 29 26 28 27 27 24 30 33 35 34 35 36 36 34 35 34 33 33 34 34 35 35 34 38 37 36 37
10 17 7 7 8 11 10 21 23 28 30 31 34 39 36 36 34 35 36 33 29 33 32 33 27 27 29 29 28 30 25 26 33 35 36 35 32 33 35 36 35 33 33 35 38 38 37 38 40 38 34 35 38 37
19 14 8 8 16 17 24 23 25 27 31 34 30 34 37 37 36 36 37 33 33 34 34 30 28 29 29 27 27 27 33 36 36 34 34 36 36 36 33 33 35 36 37 37 37 38 39 39 37 34 37 37 37 37
15 11 9 10 17 24 24 24 24 29 34 36 35 33 35 36 36 35 37 34 34 34 33 32 28 28 27 30 29 34 36 34 32 32 33 35 32 32 33 36 35 36 36 37 38 36 36 36 34 36 36 37 34 36
10 10 10 13 15 23 26 28 27 27 31 30 35 34 34 34 36 39 39 37 34 36 30 28 27 28 27 29 32 31 32 30 31 34 33 32 33 34 32 32 32 35 37 39 40 38 39 37 37 34 35 34 35 31
15 16 13 20 25 29 32 35 31 34 35 33 38 34 33 37 37 37 37 39 34 32 28 30 31 33 39 39 38 37 32 29 31 29 29 31 32 31 34 34 37 39 36 38 35 35 35 34 32 36 35 33 33 32
23 14 23 19 25 29 31 34 31 34 32 37 35 39 37 34 37 38 42 36 34 28 29 30 33 36 38 36 35 39 36 37 39 36 34 32 33 33 35 33 36 33 35 33 34 32 32 31 33 35 35 32 34 34
18 19 23 24 24 27 31 35 32 36 30 32 38 33 34 37 39 39 35 35 31 35 39 38 40 44 39 44 44 42 43 35 35 37 37 35 38 38 37 35 31 31 33 32 32 31 31 32 32 32 34 35 36 35
21 28 28 29 28 31 36 33 34 35 36 35 34 31 32 38 38 35 31 34 31 42 40 41 41 39 40 40 40 36 33 38 39 39 39 36 36 33 34 32 34 31 28 36 35 32 32 33 32 34 34 35 34 31
22 27 29 29 34 30 32 34 35 32 32 38 32 32 33 41 33 35 32 28 35 40 40 42 42 39 32 35 37 36 38 33 33 31 34 31 37 37 37 38 33 31 33 35 32 33 32 36 33 32 32 32 31 30
26 34 30 35 33 28 34 30 34 33 38 35 36 39 42 36 32 29 29 29 31 31 34 32 30 36 36 32 33 35 33 34 34 34 34 31 29 29 29 31 32 28 29 28 30 31 31 31 30 31 30 29 28 28
27 30 39 45 40 38 37 41 41 37 35 32 36 37 35 31 31 27 30 32 29 30 31 29 27 27 26 33 32 36 38 31 32 33 37 35 30 27 27 28 29 27 30 29 28 30 29 29 29 28 27 26 25 24
34 38 27 36 39 42 35 40 38 34 34 37 35 31 31 29 25 26 27 32 36 38 38 39 38 35 34 35 36 35 40 42 40 38 35 34 33 32 30 28 29 25 32 30 29 28 27 27 27 26 25 25 25 23
36 41 35 39 41 40 35 30 30 34 37 33 30 31 28 29 31 33 34 37 42 38 36 36 35 42 41 42 41 40 37 33 32 32 32 28 31 27 30 28 28 28 29 30 26 26 27 27 26 25 25 24 25 25
37 44 36 39 31 29 34 40 40 48 48 46 46 41 38 37 36 39 40 41 37 33 32 34 36 34 33 34 32 34 36 33 29 25 25 25 26 29 31 30 30 30 29 28 28 28 22 20 20 21 22 25 25 24
46 43 36 37 34 40 47 51 52 51 50 50 52 47 41 41 39 37 35 32 33 37 36 36 37 36 34 33 32 32 29 31 31 29 27 31 32 33 31 30 30 30 30 29 29 29 27 26 24 23 23 22 23 23
44 39 34 32 34 47 51 47 47 46 47 47 46 51 45 43 38 31 37 38 37 36 32 31 31 29 31 29 31 31 29 30 29 30 29 28 27 27 29 29 29 29 29 28 28 27 27 26 24 24 24 23 23 22
43 43 43 39 37 38 44 43 41 40 43 42 39 42 44 41 34 29 35 34 34 31 30 30 29 32 32 30 30 30 29 29 28 25 25 25 26 26 28 27 27 27 27 26 26 26 27 26 24 23 23 23 23 23